Wetterdaten: aktuell Montag, 25.10.2021 08:55
Datum Zeit Temp. I. Temp. 2m Temp. 5cm LF I. Luftf.2m Luftdruck Regen Wind Richtung Richtung Taupunkt Windchill Windben
25.10.2021 08:55 15,2 C -1,8 C -0,4 C 53 % 84 % 1025,4 hPa 0,0 l/m 0,0 km/h (0 Bft) W-SW 247 -4,1 C -1,8 C 0,0 km/h (0 Bft)
25.10.2021 08:54 15,1 C -1,9 C -0,4 C 53 % 84 % 1025,4 hPa 0,0 l/m 0,0 km/h (0 Bft) W 270 -4,2 C -1,9 C 0,0 km/h (0 Bft)
25.10.2021 08:53 15,1 C -1,9 C -0,4 C 53 % 84 % 1025,4 hPa 0,0 l/m 0,0 km/h (0 Bft) W 270 -4,2 C -1,9 C 0,0 km/h (0 Bft)
25.10.2021 08:52 15,2 C -2,0 C -0,4 C 53 % 84 % 1025,5 hPa 0,0 l/m 0,0 km/h (0 Bft) W 270 -4,3 C -2,0 C 0,0 km/h (0 Bft)
25.10.2021 08:51 15,2 C -2,0 C -0,4 C 53 % 84 % 1025,5 hPa 0,0 l/m 0,0 km/h (0 Bft) W 270 -4,3 C -2,0 C 0,0 km/h (0 Bft)
25.10.2021 08:50 15,2 C -2,0 C -0,6 C 53 % 84 % 1025,5 hPa 0,0 l/m 0,0 km/h (0 Bft) W 270 -4,3 C -2,0 C 0,0 km/h (0 Bft)
25.10.2021 08:49 15,2 C -2,0 C -0,6 C 53 % 84 % 1025,5 hPa 0,0 l/m 0,0 km/h (0 Bft) W 270 -4,3 C -2,0 C 0,0 km/h (0 Bft)
25.10.2021 08:48 15,2 C -2,2 C -0,6 C 53 % 84 % 1025,5 hPa 0,0 l/m 0,0 km/h (0 Bft) NW 315 -4,5 C -2,2 C 0,0 km/h (0 Bft)
25.10.2021 08:47 15,2 C -2,2 C -0,6 C 53 % 84 % 1025,5 hPa 0,0 l/m 0,0 km/h (0 Bft) NW 315 -4,5 C -2,2 C 0,0 km/h (0 Bft)
25.10.2021 08:46 15,2 C -2,2 C -0,5 C 53 % 84 % 1025,5 hPa 0,0 l/m 0,0 km/h (0 Bft) W 270 -4,5 C -2,2 C 0,0 km/h (0 Bft)
25.10.2021 08:45 15,2 C -2,2 C -0,5 C 53 % 84 % 1025,5 hPa 0,0 l/m 0,0 km/h (0 Bft) W 270 -4,5 C -2,2 C 0,0 km/h (0 Bft)
25.10.2021 08:44 15,2 C -2,3 C -0,7 C 53 % 84 % 1025,5 hPa 0,0 l/m 0,0 km/h (0 Bft) W-SW 247 -4,6 C -2,3 C 0,0 km/h (0 Bft)
25.10.2021 08:43 15,2 C -2,3 C -0,7 C 53 % 84 % 1025,5 hPa 0,0 l/m 0,0 km/h (0 Bft) W-SW 247 -4,6 C -2,3 C 0,0 km/h (0 Bft)
25.10.2021 08:42 15,1 C -2,4 C -0,7 C 53 % 84 % 1025,5 hPa 0,0 l/m 0,0 km/h (0 Bft) W 270 -4,7 C -2,4 C 0,0 km/h (0 Bft)
25.10.2021 08:41 15,1 C -2,4 C -0,7 C 53 % 84 % 1025,5 hPa 0,0 l/m 0,0 km/h (0 Bft) W 270 -4,7 C -2,4 C 0,0 km/h (0 Bft)
25.10.2021 08:40 15,2 C -2,4 C -0,8 C 53 % 84 % 1025,5 hPa 0,0 l/m 0,0 km/h (0 Bft) W 270 -4,7 C -2,4 C 0,0 km/h (0 Bft)
25.10.2021 08:39 15,2 C -2,4 C -0,8 C 53 % 84 % 1025,5 hPa 0,0 l/m 0,0 km/h (0 Bft) W 270 -4,7 C -2,4 C 0,0 km/h (0 Bft)
25.10.2021 08:38 15,1 C -2,6 C -0,8 C 53 % 84 % 1025,5 hPa 0,0 l/m 0,0 km/h (0 Bft) SW 225 -4,9 C -2,6 C 0,0 km/h (0 Bft)
25.10.2021 08:37 15,1 C -2,6 C -0,8 C 53 % 84 % 1025,5 hPa 0,0 l/m 0,0 km/h (0 Bft) SW 225 -4,9 C -2,6 C 0,0 km/h (0 Bft)
25.10.2021 08:36 15,1 C -2,7 C -1,0 C 53 % 84 % 1025,5 hPa 0,0 l/m 0,0 km/h (0 Bft) SW 225 -5,0 C -2,7 C 0,0 km/h (0 Bft)
25.10.2021 08:35 15,1 C -2,7 C -1,0 C 53 % 84 % 1025,5 hPa 0,0 l/m 0,0 km/h (0 Bft) SW 225 -5,0 C -2,7 C 0,0 km/h (0 Bft)
25.10.2021 08:34 15,1 C -2,7 C -1,1 C 53 % 84 % 1025,5 hPa 0,0 l/m 0,0 km/h (0 Bft) W 270 -5,0 C -2,7 C 0,0 km/h (0 Bft)
25.10.2021 08:33 15,1 C -2,7 C -1,1 C 53 % 84 % 1025,5 hPa 0,0 l/m 0,0 km/h (0 Bft) W 270 -5,0 C -2,7 C 0,0 km/h (0 Bft)
25.10.2021 08:32 15,1 C -2,8 C -1,2 C 53 % 84 % 1025,4 hPa 0,0 l/m 0,0 km/h (0 Bft) W-SW 247 -5,1 C -2,8 C 0,0 km/h (0 Bft)
25.10.2021 08:31 15,1 C -2,8 C -1,2 C 53 % 84 % 1025,4 hPa 0,0 l/m 0,0 km/h (0 Bft) W-SW 247 -5,1 C -2,8 C 0,0 km/h (0 Bft)
25.10.2021 08:30 15,1 C -3,0 C -1,2 C 53 % 84 % 1025,4 hPa 0,0 l/m 0,0 km/h (0 Bft) NW 315 -5,3 C -3,0 C 0,0 km/h (0 Bft)
25.10.2021 08:29 15,1 C -3,0 C -1,2 C 53 % 84 % 1025,4 hPa 0,0 l/m 0,0 km/h (0 Bft) NW 315 -5,3 C -3,0 C 0,0 km/h (0 Bft)
25.10.2021 08:28 14,9 C -3,0 C -1,1 C 53 % 84 % 1025,4 hPa 0,0 l/m 0,0 km/h (0 Bft) N-NW 337 -5,3 C -3,0 C 0,0 km/h (0 Bft)
25.10.2021 08:27 14,9 C -3,0 C -1,1 C 53 % 84 % 1025,4 hPa 0,0 l/m 0,0 km/h (0 Bft) N-NW 337 -5,3 C -3,0 C 0,0 km/h (0 Bft)
25.10.2021 08:26 15,1 C -3,1 C -1,2 C 53 % 84 % 1025,4 hPa 0,0 l/m 0,0 km/h (0 Bft) W 270 -5,4 C -3,1 C 0,0 km/h (0 Bft)
25.10.2021 08:25 15,1 C -3,1 C -1,2 C 53 % 84 % 1025,4 hPa 0,0 l/m 0,0 km/h (0 Bft) W 270 -5,4 C -3,1 C 0,0 km/h (0 Bft)
25.10.2021 08:24 14,9 C -3,1 C -1,4 C 53 % 84 % 1025,4 hPa 0,0 l/m 0,0 km/h (0 Bft) W 270 -5,4 C -3,1 C 0,0 km/h (0 Bft)
25.10.2021 08:23 14,9 C -3,1 C -1,4 C 53 % 84 % 1025,4 hPa 0,0 l/m 0,0 km/h (0 Bft) W 270 -5,4 C -3,1 C 0,0 km/h (0 Bft)
25.10.2021 08:22 15,0 C -3,1 C -1,4 C 53 % 84 % 1025,4 hPa 0,0 l/m 0,0 km/h (0 Bft) W-SW 247 -5,4 C -3,1 C 0,0 km/h (0 Bft)
25.10.2021 08:21 15,0 C -3,1 C -1,4 C 53 % 84 % 1025,4 hPa 0,0 l/m 0,0 km/h (0 Bft) W-SW 247 -5,4 C -3,1 C 0,0 km/h (0 Bft)
25.10.2021 08:20 15,0 C -3,1 C -1,4 C 53 % 84 % 1025,4 hPa 0,0 l/m 0,0 km/h (0 Bft) W-SW 247 -5,4 C -3,1 C 0,0 km/h (0 Bft)
25.10.2021 08:19 15,0 C -3,1 C -1,4 C 53 % 84 % 1025,4 hPa 0,0 l/m 0,0 km/h (0 Bft) W-SW 247 -5,4 C -3,1 C 0,0 km/h (0 Bft)
25.10.2021 08:18 15,0 C -3,2 C -1,4 C 53 % 84 % 1025,4 hPa 0,0 l/m 0,0 km/h (0 Bft) W-SW 247 -5,5 C -3,2 C 0,0 km/h (0 Bft)
25.10.2021 08:17 15,0 C -3,2 C -1,4 C 53 % 84 % 1025,4 hPa 0,0 l/m 0,0 km/h (0 Bft) W-SW 247 -5,5 C -3,2 C 0,0 km/h (0 Bft)
25.10.2021 08:16 15,0 C -3,2 C -1,4 C 53 % 84 % 1025,4 hPa 0,0 l/m 0,0 km/h (0 Bft) NW 315 -5,5 C -3,2 C 0,0 km/h (0 Bft)
25.10.2021 08:15 15,0 C -3,2 C -1,4 C 53 % 84 % 1025,4 hPa 0,0 l/m 0,0 km/h (0 Bft) NW 315 -5,5 C -3,2 C 0,0 km/h (0 Bft)
25.10.2021 08:14 15,0 C -3,4 C -1,5 C 53 % 84 % 1025,4 hPa 0,0 l/m 0,0 km/h (0 Bft) N-NO 22 -5,7 C -3,4 C 0,0 km/h (0 Bft)
25.10.2021 08:13 15,0 C -3,4 C -1,5 C 53 % 84 % 1025,4 hPa 0,0 l/m 0,0 km/h (0 Bft) N-NO 22 -5,7 C -3,4 C 0,0 km/h (0 Bft)
25.10.2021 08:12 15,0 C -3,5 C -1,5 C 53 % 84 % 1025,0 hPa 0,0 l/m 0,0 km/h (0 Bft) W 270 -5,8 C -3,5 C 0,0 km/h (0 Bft)
25.10.2021 08:11 15,0 C -3,5 C -1,5 C 53 % 84 % 1025,0 hPa 0,0 l/m 0,0 km/h (0 Bft) W 270 -5,8 C -3,5 C 0,0 km/h (0 Bft)
25.10.2021 08:10 14,8 C -3,5 C -1,5 C 53 % 83 % 1025,0 hPa 0,0 l/m 0,0 km/h (0 Bft) NW 315 -6,0 C -3,5 C 0,0 km/h (0 Bft)
25.10.2021 08:09 14,8 C -3,5 C -1,5 C 53 % 83 % 1025,0 hPa 0,0 l/m 0,0 km/h (0 Bft) NW 315 -6,0 C -3,5 C 0,0 km/h (0 Bft)
25.10.2021 08:08 14,8 C -3,5 C -1,5 C 54 % 83 % 1025,0 hPa 0,0 l/m 0,0 km/h (0 Bft) W 270 -6,0 C -3,5 C 0,0 km/h (0 Bft)
25.10.2021 08:07 14,8 C -3,5 C -1,5 C 54 % 83 % 1025,0 hPa 0,0 l/m 0,0 km/h (0 Bft) W 270 -6,0 C -3,5 C 0,0 km/h (0 Bft)
25.10.2021 08:06 14,8 C -3,5 C -1,6 C 54 % 83 % 1025,0 hPa 0,0 l/m 0,0 km/h (0 Bft) W 270 -6,0 C -3,5 C 0,0 km/h (0 Bft)
25.10.2021 08:05 14,8 C -3,5 C -1,6 C 54 % 83 % 1025,0 hPa 0,0 l/m 0,0 km/h (0 Bft) W 270 -6,0 C -3,5 C 0,0 km/h (0 Bft)
25.10.2021 08:04 14,9 C -3,5 C -1,6 C 54 % 83 % 1025,0 hPa 0,0 l/m 0,0 km/h (0 Bft) W 270 -6,0 C -3,5 C 0,0 km/h (0 Bft)
25.10.2021 08:03 14,9 C -3,5 C -1,6 C 54 % 83 % 1025,0 hPa 0,0 l/m 0,0 km/h (0 Bft) W 270 -6,0 C -3,5 C 0,0 km/h (0 Bft)
25.10.2021 08:02 14,9 C -3,5 C -1,8 C 54 % 83 % 1025,0 hPa 0,0 l/m 0,0 km/h (0 Bft) W 270 -6,0 C -3,5 C 0,0 km/h (0 Bft)
25.10.2021 08:01 14,9 C -3,5 C -1,8 C 54 % 83 % 1025,0 hPa 0,0 l/m 0,0 km/h (0 Bft) W 270 -6,0 C -3,5 C 0,0 km/h (0 Bft)
25.10.2021 08:00 14,9 C -3,6 C -1,8 C 54 % 83 % 1025,0 hPa 0,0 l/m 0,0 km/h (0 Bft) W-NW 292 -6,1 C -3,6 C 0,0 km/h (0 Bft)
25.10.2021 07:59 14,9 C -3,6 C -1,8 C 54 % 83 % 1025,0 hPa 0,0 l/m 0,0 km/h (0 Bft) W-NW 292 -6,1 C -3,6 C 0,0 km/h (0 Bft)
25.10.2021 07:58 14,8 C -3,6 C -1,8 C 54 % 83 % 1025,0 hPa 0,0 l/m 0,0 km/h (0 Bft) W-NW 292 -6,1 C -3,6 C 0,0 km/h (0 Bft)
25.10.2021 07:57 14,8 C -3,6 C -1,8 C 54 % 83 % 1025,0 hPa 0,0 l/m 0,0 km/h (0 Bft) W-NW 292 -6,1 C -3,6 C 0,0 km/h (0 Bft)
25.10.2021 07:56 14,8 C -3,6 C -1,8 C 53 % 83 % 1025,0 hPa 0,0 l/m 0,0 km/h (0 Bft) W-NW 292 -6,1 C -3,6 C 0,0 km/h (0 Bft)
25.10.2021 07:55 14,8 C -3,6 C -1,8 C 53 % 83 % 1025,0 hPa 0,0 l/m 0,0 km/h (0 Bft) W-NW 292 -6,1 C -3,6 C 0,0 km/h (0 Bft)
25.10.2021 07:54 14,8 C -3,6 C -1,8 C 54 % 83 % 1025,0 hPa 0,0 l/m 0,0 km/h (0 Bft) W 270 -6,1 C -3,6 C 0,0 km/h (0 Bft)
25.10.2021 07:53 14,8 C -3,6 C -1,8 C 54 % 83 % 1025,0 hPa 0,0 l/m 0,0 km/h (0 Bft) W 270 -6,1 C -3,6 C 0,0 km/h (0 Bft)
25.10.2021 07:52 14,8 C -3,6 C -1,6 C 54 % 83 % 1024,9 hPa 0,0 l/m 0,0 km/h (0 Bft) W 270 -6,1 C -3,6 C 0,0 km/h (0 Bft)
25.10.2021 07:51 14,8 C -3,6 C -1,6 C 54 % 83 % 1024,9 hPa 0,0 l/m 0,0 km/h (0 Bft) W 270 -6,1 C -3,6 C 0,0 km/h (0 Bft)
25.10.2021 07:50 14,8 C -3,6 C -1,6 C 54 % 83 % 1024,9 hPa 0,0 l/m 0,0 km/h (0 Bft) W-SW 247 -6,1 C -3,6 C 0,0 km/h (0 Bft)
25.10.2021 07:49 14,8 C -3,6 C -1,6 C 54 % 83 % 1024,9 hPa 0,0 l/m 0,0 km/h (0 Bft) W-SW 247 -6,1 C -3,6 C 0,0 km/h (0 Bft)
25.10.2021 07:48 14,8 C -3,6 C -1,8 C 54 % 83 % 1024,9 hPa 0,0 l/m 0,0 km/h (0 Bft) SW 225 -6,1 C -3,6 C 0,0 km/h (0 Bft)
25.10.2021 07:47 14,8 C -3,6 C -1,8 C 54 % 83 % 1024,9 hPa 0,0 l/m 0,0 km/h (0 Bft) SW 225 -6,1 C -3,6 C 0,0 km/h (0 Bft)
25.10.2021 07:46 14,8 C -3,6 C -1,8 C 54 % 83 % 1024,9 hPa 0,0 l/m 0,0 km/h (0 Bft) W 270 -6,1 C -3,6 C 0,0 km/h (0 Bft)
25.10.2021 07:45 14,8 C -3,6 C -1,8 C 54 % 83 % 1024,9 hPa 0,0 l/m 0,0 km/h (0 Bft) W 270 -6,1 C -3,6 C 0,0 km/h (0 Bft)
25.10.2021 07:44 14,8 C -3,6 C -1,8 C 54 % 83 % 1024,9 hPa 0,0 l/m 0,0 km/h (0 Bft) W 270 -6,1 C -3,6 C 0,0 km/h (0 Bft)
25.10.2021 07:43 14,8 C -3,6 C -1,8 C 54 % 83 % 1024,9 hPa 0,0 l/m 0,0 km/h (0 Bft) W 270 -6,1 C -3,6 C 0,0 km/h (0 Bft)
25.10.2021 07:42 14,8 C -3,6 C -1,8 C 54 % 83 % 1024,9 hPa 0,0 l/m 0,0 km/h (0 Bft) W 270 -6,1 C -3,6 C 0,0 km/h (0 Bft)
25.10.2021 07:41 14,8 C -3,6 C -1,8 C 54 % 83 % 1024,9 hPa 0,0 l/m 0,0 km/h (0 Bft) W 270 -6,1 C -3,6 C 0,0 km/h (0 Bft)
25.10.2021 07:40 14,8 C -3,6 C -1,8 C 54 % 83 % 1024,9 hPa 0,0 l/m 0,0 km/h (0 Bft) W 270 -6,1 C -3,6 C 0,0 km/h (0 Bft)
25.10.2021 07:39 14,8 C -3,6 C -1,8 C 54 % 83 % 1024,9 hPa 0,0 l/m 0,0 km/h (0 Bft) W 270 -6,1 C -3,6 C 0,0 km/h (0 Bft)
25.10.2021 07:38 14,8 C -3,6 C -1,8 C 54 % 83 % 1024,9 hPa 0,0 l/m 0,0 km/h (0 Bft) W 270 -6,1 C -3,6 C 0,0 km/h (0 Bft)
25.10.2021 07:37 14,8 C -3,6 C -1,8 C 54 % 83 % 1024,9 hPa 0,0 l/m 0,0 km/h (0 Bft) W 270 -6,1 C -3,6 C 0,0 km/h (0 Bft)
25.10.2021 07:36 14,8 C -3,6 C -1,8 C 54 % 83 % 1024,9 hPa 0,0 l/m 0,0 km/h (0 Bft) W 270 -6,1 C -3,6 C 0,0 km/h (0 Bft)
25.10.2021 07:35 14,8 C -3,6 C -1,8 C 54 % 83 % 1024,9 hPa 0,0 l/m 0,0 km/h (0 Bft) W 270 -6,1 C -3,6 C 0,0 km/h (0 Bft)
25.10.2021 07:34 14,8 C -3,6 C -1,6 C 54 % 83 % 1024,9 hPa 0,0 l/m 0,0 km/h (0 Bft) S 180 -6,1 C -3,6 C 0,0 km/h (0 Bft)
25.10.2021 07:33 14,8 C -3,6 C -1,6 C 54 % 83 % 1024,9 hPa 0,0 l/m 0,0 km/h (0 Bft) S 180 -6,1 C -3,6 C 0,0 km/h (0 Bft)
25.10.2021 07:32 14,8 C -3,6 C -1,8 C 54 % 83 % 1024,9 hPa 0,0 l/m 0,0 km/h (0 Bft) S-SO 157 -6,1 C -3,6 C 0,0 km/h (0 Bft)
25.10.2021 07:31 14,8 C -3,6 C -1,8 C 54 % 83 % 1024,9 hPa 0,0 l/m 0,0 km/h (0 Bft) S-SO 157 -6,1 C -3,6 C 0,0 km/h (0 Bft)
25.10.2021 07:30 14,8 C -3,6 C -1,6 C 54 % 83 % 1024,9 hPa 0,0 l/m 0,0 km/h (0 Bft) S 180 -6,1 C -3,6 C 0,0 km/h (0 Bft)
25.10.2021 07:29 14,8 C -3,6 C -1,6 C 54 % 83 % 1024,9 hPa 0,0 l/m 0,0 km/h (0 Bft) S 180 -6,1 C -3,6 C 0,0 km/h (0 Bft)
25.10.2021 07:28 14,8 C -3,6 C -1,6 C 54 % 83 % 1024,9 hPa 0,0 l/m 0,0 km/h (0 Bft) NW 315 -6,1 C -3,6 C 0,0 km/h (0 Bft)
25.10.2021 07:27 14,8 C -3,6 C -1,6 C 54 % 83 % 1024,9 hPa 0,0 l/m 0,0 km/h (0 Bft) NW 315 -6,1 C -3,6 C 0,0 km/h (0 Bft)
25.10.2021 07:26 14,8 C -3,6 C -1,6 C 54 % 83 % 1024,9 hPa 0,0 l/m 0,0 km/h (0 Bft) NW 315 -6,1 C -3,6 C 0,0 km/h (0 Bft)
25.10.2021 07:25 14,8 C -3,6 C -1,6 C 54 % 83 % 1024,9 hPa 0,0 l/m 0,0 km/h (0 Bft) NW 315 -6,1 C -3,6 C 0,0 km/h (0 Bft)
25.10.2021 07:24 14,8 C -3,6 C -1,6 C 54 % 83 % 1024,9 hPa 0,0 l/m 0,0 km/h (0 Bft) N-NW 337 -6,1 C -3,6 C 0,0 km/h (0 Bft)
25.10.2021 07:23 14,8 C -3,6 C -1,6 C 54 % 83 % 1024,9 hPa 0,0 l/m 0,0 km/h (0 Bft) N-NW 337 -6,1 C -3,6 C 0,0 km/h (0 Bft)
25.10.2021 07:22 14,8 C -3,6 C -1,8 C 54 % 83 % 1024,9 hPa 0,0 l/m 0,0 km/h (0 Bft) N-NW 337 -6,1 C -3,6 C 0,0 km/h (0 Bft)
25.10.2021 07:21 14,8 C -3,6 C -1,8 C 54 % 83 % 1024,9 hPa 0,0 l/m 0,0 km/h (0 Bft) N-NW 337 -6,1 C -3,6 C 0,0 km/h (0 Bft)
25.10.2021 07:20 14,8 C -3,6 C -1,8 C 54 % 83 % 1024,9 hPa 0,0 l/m 0,0 km/h (0 Bft) W-SW 247 -6,1 C -3,6 C 0,0 km/h (0 Bft)
25.10.2021 07:19 14,8 C -3,6 C -1,8 C 54 % 83 % 1024,9 hPa 0,0 l/m 0,0 km/h (0 Bft) W-SW 247 -6,1 C -3,6 C 0,0 km/h (0 Bft)
25.10.2021 07:18 14,8 C -3,6 C -1,8 C 54 % 83 % 1024,9 hPa 0,0 l/m 0,0 km/h (0 Bft) W-SW 247 -6,1 C -3,6 C 0,0 km/h (0 Bft)
25.10.2021 07:17 14,8 C -3,6 C -1,8 C 54 % 83 % 1024,9 hPa 0,0 l/m 0,0 km/h (0 Bft) W-SW 247 -6,1 C -3,6 C 0,0 km/h (0 Bft)
25.10.2021 07:16 14,8 C -3,6 C -1,8 C 54 % 83 % 1024,9 hPa 0,0 l/m 0,0 km/h (0 Bft) S-SW 202 -6,1 C -3,6 C 0,0 km/h (0 Bft)
25.10.2021 07:15 14,8 C -3,6 C -1,8 C 54 % 83 % 1024,9 hPa 0,0 l/m 0,0 km/h (0 Bft) S-SW 202 -6,1 C -3,6 C 0,0 km/h (0 Bft)
25.10.2021 07:14 14,8 C -3,6 C -1,8 C 54 % 83 % 1024,9 hPa 0,0 l/m 0,0 km/h (0 Bft) W-SW 247 -6,1 C -3,6 C 0,0 km/h (0 Bft)
25.10.2021 07:13 14,8 C -3,6 C -1,8 C 54 % 83 % 1024,9 hPa 0,0 l/m 0,0 km/h (0 Bft) W-SW 247 -6,1 C -3,6 C 0,0 km/h (0 Bft)
25.10.2021 07:12 14,6 C -3,6 C -1,6 C 54 % 83 % 1024,9 hPa 0,0 l/m 0,0 km/h (0 Bft) W-SW 247 -6,1 C -3,6 C 0,0 km/h (0 Bft)
25.10.2021 07:11 14,6 C -3,6 C -1,6 C 54 % 83 % 1024,9 hPa 0,0 l/m 0,0 km/h (0 Bft) W-SW 247 -6,1 C -3,6 C 0,0 km/h (0 Bft)
25.10.2021 07:10 14,6 C -3,5 C -1,6 C 54 % 83 % 1024,9 hPa 0,0 l/m 0,0 km/h (0 Bft) SW 225 -6,0 C -3,5 C 0,0 km/h (0 Bft)
25.10.2021 07:09 14,6 C -3,5 C -1,6 C 54 % 83 % 1024,9 hPa 0,0 l/m 0,0 km/h (0 Bft) SW 225 -6,0 C -3,5 C 0,0 km/h (0 Bft)
25.10.2021 07:08 14,7 C -3,5 C -1,6 C 54 % 83 % 1024,9 hPa 0,0 l/m 0,0 km/h (0 Bft) W-SW 247 -6,0 C -3,5 C 0,0 km/h (0 Bft)
25.10.2021 07:07 14,7 C -3,5 C -1,6 C 54 % 83 % 1024,9 hPa 0,0 l/m 0,0 km/h (0 Bft) W-SW 247 -6,0 C -3,5 C 0,0 km/h (0 Bft)
25.10.2021 07:06 14,7 C -3,5 C -1,6 C 54 % 83 % 1024,9 hPa 0,0 l/m 0,0 km/h (0 Bft) W 270 -6,0 C -3,5 C 0,0 km/h (0 Bft)
25.10.2021 07:05 14,7 C -3,5 C -1,6 C 54 % 83 % 1024,9 hPa 0,0 l/m 0,0 km/h (0 Bft) W 270 -6,0 C -3,5 C 0,0 km/h (0 Bft)
25.10.2021 07:04 14,7 C -3,5 C -1,6 C 54 % 83 % 1024,9 hPa 0,0 l/m 0,0 km/h (0 Bft) N-NW 337 -6,0 C -3,5 C 0,0 km/h (0 Bft)
25.10.2021 07:03 14,7 C -3,5 C -1,6 C 54 % 83 % 1024,9 hPa 0,0 l/m 0,0 km/h (0 Bft) N-NW 337 -6,0 C -3,5 C 0,0 km/h (0 Bft)
25.10.2021 07:02 14,7 C -3,5 C -1,6 C 54 % 83 % 1024,9 hPa 0,0 l/m 0,0 km/h (0 Bft) N-NO 22 -6,0 C -3,5 C 0,0 km/h (0 Bft)
25.10.2021 07:01 14,7 C -3,5 C -1,6 C 54 % 83 % 1024,9 hPa 0,0 l/m 0,0 km/h (0 Bft) N-NO 22 -6,0 C -3,5 C 0,0 km/h (0 Bft)
25.10.2021 07:00 14,7 C -3,5 C -1,5 C 54 % 83 % 1024,9 hPa 0,0 l/m 0,0 km/h (0 Bft) W-SW 247 -6,0 C -3,5 C 0,0 km/h (0 Bft)
25.10.2021 06:59 14,7 C -3,5 C -1,5 C 54 % 83 % 1024,9 hPa 0,0 l/m 0,0 km/h (0 Bft) W-SW 247 -6,0 C -3,5 C 0,0 km/h (0 Bft)
25.10.2021 06:58 14,6 C -3,5 C -1,5 C 54 % 83 % 1024,9 hPa 0,0 l/m 0,0 km/h (0 Bft) NW 315 -6,0 C -3,5 C 0,0 km/h (0 Bft)
25.10.2021 06:57 14,6 C -3,5 C -1,5 C 54 % 83 % 1024,9 hPa 0,0 l/m 0,0 km/h (0 Bft) NW 315 -6,0 C -3,5 C 0,0 km/h (0 Bft)
25.10.2021 06:56 14,6 C -3,5 C -1,5 C 54 % 83 % 1024,9 hPa 0,0 l/m 0,0 km/h (0 Bft) W-SW 247 -6,0 C -3,5 C 0,0 km/h (0 Bft)
25.10.2021 06:55 14,6 C -3,5 C -1,5 C 54 % 83 % 1024,9 hPa 0,0 l/m 0,0 km/h (0 Bft) W-SW 247 -6,0 C -3,5 C 0,0 km/h (0 Bft)
25.10.2021 06:54 14,6 C -3,5 C -1,5 C 54 % 83 % 1024,9 hPa 0,0 l/m 0,0 km/h (0 Bft) S-SW 202 -6,0 C -3,5 C 0,0 km/h (0 Bft)
25.10.2021 06:53 14,6 C -3,5 C -1,5 C 54 % 83 % 1024,9 hPa 0,0 l/m 0,0 km/h (0 Bft) S-SW 202 -6,0 C -3,5 C 0,0 km/h (0 Bft)
25.10.2021 06:52 14,6 C -3,5 C -1,5 C 54 % 83 % 1024,9 hPa 0,0 l/m 0,0 km/h (0 Bft) S-SO 157 -6,0 C -3,5 C 0,0 km/h (0 Bft)
25.10.2021 06:51 14,6 C -3,5 C -1,5 C 54 % 83 % 1024,9 hPa 0,0 l/m 0,0 km/h (0 Bft) S-SO 157 -6,0 C -3,5 C 0,0 km/h (0 Bft)
25.10.2021 06:50 14,6 C -3,4 C -1,5 C 54 % 83 % 1024,9 hPa 0,0 l/m 0,0 km/h (0 Bft) S-SO 157 -5,9 C -3,4 C 0,0 km/h (0 Bft)
25.10.2021 06:49 14,6 C -3,4 C -1,5 C 54 % 83 % 1024,9 hPa 0,0 l/m 0,0 km/h (0 Bft) S-SO 157 -5,9 C -3,4 C 0,0 km/h (0 Bft)
25.10.2021 06:48 14,6 C -3,4 C -1,5 C 54 % 83 % 1024,9 hPa 0,0 l/m 0,0 km/h (0 Bft) S-SO 157 -5,9 C -3,4 C 0,0 km/h (0 Bft)
25.10.2021 06:47 14,6 C -3,4 C -1,5 C 54 % 83 % 1024,9 hPa 0,0 l/m 0,0 km/h (0 Bft) S-SO 157 -5,9 C -3,4 C 0,0 km/h (0 Bft)
25.10.2021 06:46 14,4 C -3,4 C -1,5 C 55 % 83 % 1024,9 hPa 0,0 l/m 0,0 km/h (0 Bft) S-SO 157 -5,9 C -3,4 C 0,0 km/h (0 Bft)
25.10.2021 06:45 14,4 C -3,4 C -1,5 C 55 % 83 % 1024,9 hPa 0,0 l/m 0,0 km/h (0 Bft) S-SO 157 -5,9 C -3,4 C 0,0 km/h (0 Bft)
25.10.2021 06:44 14,4 C -3,4 C -1,5 C 54 % 83 % 1024,9 hPa 0,0 l/m 0,0 km/h (0 Bft) SW 225 -5,9 C -3,4 C 0,0 km/h (0 Bft)
25.10.2021 06:43 14,4 C -3,4 C -1,5 C 54 % 83 % 1024,9 hPa 0,0 l/m 0,0 km/h (0 Bft) SW 225 -5,9 C -3,4 C 0,0 km/h (0 Bft)
25.10.2021 06:42 14,4 C -3,4 C -1,5 C 55 % 83 % 1024,9 hPa 0,0 l/m 0,0 km/h (0 Bft) SW 225 -5,9 C -3,4 C 0,0 km/h (0 Bft)
25.10.2021 06:41 14,4 C -3,4 C -1,5 C 55 % 83 % 1024,9 hPa 0,0 l/m 0,0 km/h (0 Bft) SW 225 -5,9 C -3,4 C 0,0 km/h (0 Bft)
25.10.2021 06:40 14,5 C -3,4 C -1,5 C 55 % 83 % 1024,9 hPa 0,0 l/m 0,0 km/h (0 Bft) W-SW 247 -5,9 C -3,4 C 0,0 km/h (0 Bft)
25.10.2021 06:39 14,5 C -3,4 C -1,5 C 55 % 83 % 1024,9 hPa 0,0 l/m 0,0 km/h (0 Bft) W-SW 247 -5,9 C -3,4 C 0,0 km/h (0 Bft)
25.10.2021 06:38 14,5 C -3,4 C -1,5 C 55 % 83 % 1024,9 hPa 0,0 l/m 0,0 km/h (0 Bft) SW 225 -5,9 C -3,4 C 0,0 km/h (0 Bft)
25.10.2021 06:37 14,5 C -3,4 C -1,5 C 55 % 83 % 1024,9 hPa 0,0 l/m 0,0 km/h (0 Bft) SW 225 -5,9 C -3,4 C 0,0 km/h (0 Bft)
25.10.2021 06:36 14,3 C -3,2 C -1,5 C 55 % 83 % 1024,9 hPa 0,0 l/m 0,0 km/h (0 Bft) W 270 -5,7 C -3,2 C 0,0 km/h (0 Bft)
25.10.2021 06:35 14,3 C -3,2 C -1,5 C 55 % 83 % 1024,9 hPa 0,0 l/m 0,0 km/h (0 Bft) W 270 -5,7 C -3,2 C 0,0 km/h (0 Bft)
25.10.2021 06:34 14,3 C -3,2 C -1,5 C 55 % 83 % 1024,9 hPa 0,0 l/m 0,0 km/h (0 Bft) W 270 -5,7 C -3,2 C 0,0 km/h (0 Bft)
25.10.2021 06:33 14,3 C -3,2 C -1,5 C 55 % 83 % 1024,9 hPa 0,0 l/m 0,0 km/h (0 Bft) W 270 -5,7 C -3,2 C 0,0 km/h (0 Bft)
25.10.2021 06:32 14,3 C -3,2 C -1,5 C 55 % 83 % 1024,8 hPa 0,0 l/m 0,0 km/h (0 Bft) W-NW 292 -5,7 C -3,2 C 0,0 km/h (0 Bft)
25.10.2021 06:31 14,3 C -3,2 C -1,5 C 55 % 83 % 1024,8 hPa 0,0 l/m 0,0 km/h (0 Bft) W-NW 292 -5,7 C -3,2 C 0,0 km/h (0 Bft)
25.10.2021 06:30 14,3 C -3,2 C -1,4 C 55 % 83 % 1024,8 hPa 0,0 l/m 0,0 km/h (0 Bft) W 270 -5,7 C -3,2 C 0,0 km/h (0 Bft)
25.10.2021 06:29 14,3 C -3,2 C -1,4 C 55 % 83 % 1024,8 hPa 0,0 l/m 0,0 km/h (0 Bft) W 270 -5,7 C -3,2 C 0,0 km/h (0 Bft)
25.10.2021 06:28 14,3 C -3,2 C -1,4 C 55 % 83 % 1024,8 hPa 0,0 l/m 0,0 km/h (0 Bft) W-SW 247 -5,7 C -3,2 C 0,0 km/h (0 Bft)
25.10.2021 06:27 14,3 C -3,2 C -1,4 C 55 % 83 % 1024,8 hPa 0,0 l/m 0,0 km/h (0 Bft) W-SW 247 -5,7 C -3,2 C 0,0 km/h (0 Bft)
25.10.2021 06:26 14,4 C -3,2 C -1,5 C 55 % 83 % 1024,8 hPa 0,0 l/m 0,0 km/h (0 Bft) W-NW 292 -5,7 C -3,2 C 0,0 km/h (0 Bft)
25.10.2021 06:25 14,4 C -3,2 C -1,5 C 55 % 83 % 1024,8 hPa 0,0 l/m 0,0 km/h (0 Bft) W-NW 292 -5,7 C -3,2 C 0,0 km/h (0 Bft)
25.10.2021 06:24 14,4 C -3,2 C -1,4 C 55 % 83 % 1024,8 hPa 0,0 l/m 0,0 km/h (0 Bft) W 270 -5,7 C -3,2 C 0,0 km/h (0 Bft)
25.10.2021 06:23 14,4 C -3,2 C -1,4 C 55 % 83 % 1024,8 hPa 0,0 l/m 0,0 km/h (0 Bft) W 270 -5,7 C -3,2 C 0,0 km/h (0 Bft)
25.10.2021 06:22 14,4 C -3,2 C -1,4 C 55 % 83 % 1024,8 hPa 0,0 l/m 0,0 km/h (0 Bft) W-SW 247 -5,7 C -3,2 C 0,0 km/h (0 Bft)
25.10.2021 06:21 14,4 C -3,2 C -1,4 C 55 % 83 % 1024,8 hPa 0,0 l/m 0,0 km/h (0 Bft) W-SW 247 -5,7 C -3,2 C 0,0 km/h (0 Bft)
25.10.2021 06:20 14,4 C -3,2 C -1,4 C 55 % 83 % 1024,8 hPa 0,0 l/m 0,0 km/h (0 Bft) W-NW 292 -5,7 C -3,2 C 0,0 km/h (0 Bft)
25.10.2021 06:19 14,4 C -3,2 C -1,4 C 55 % 83 % 1024,8 hPa 0,0 l/m 0,0 km/h (0 Bft) W-NW 292 -5,7 C -3,2 C 0,0 km/h (0 Bft)
25.10.2021 06:18 14,4 C -3,1 C -1,4 C 54 % 83 % 1024,8 hPa 0,0 l/m 0,0 km/h (0 Bft) W 270 -5,6 C -3,1 C 0,0 km/h (0 Bft)
25.10.2021 06:17 14,4 C -3,1 C -1,4 C 54 % 83 % 1024,8 hPa 0,0 l/m 0,0 km/h (0 Bft) W 270 -5,6 C -3,1 C 0,0 km/h (0 Bft)
25.10.2021 06:16 14,4 C -3,1 C -1,4 C 54 % 83 % 1024,8 hPa 0,0 l/m 0,0 km/h (0 Bft) W 270 -5,6 C -3,1 C 0,0 km/h (0 Bft)
25.10.2021 06:15 14,4 C -3,1 C -1,4 C 54 % 83 % 1024,8 hPa 0,0 l/m 0,0 km/h (0 Bft) W 270 -5,6 C -3,1 C 0,0 km/h (0 Bft)
25.10.2021 06:14 14,4 C -3,1 C -1,4 C 54 % 83 % 1024,8 hPa 0,0 l/m 0,0 km/h (0 Bft) W 270 -5,6 C -3,1 C 0,0 km/h (0 Bft)
25.10.2021 06:13 14,4 C -3,1 C -1,4 C 54 % 83 % 1024,8 hPa 0,0 l/m 0,0 km/h (0 Bft) W 270 -5,6 C -3,1 C 0,0 km/h (0 Bft)
25.10.2021 06:12 14,4 C -3,1 C -1,4 C 54 % 83 % 1024,9 hPa 0,0 l/m 0,0 km/h (0 Bft) N-NW 337 -5,6 C -3,1 C 0,0 km/h (0 Bft)
25.10.2021 06:11 14,4 C -3,1 C -1,4 C 54 % 83 % 1024,9 hPa 0,0 l/m 0,0 km/h (0 Bft) N-NW 337 -5,6 C -3,1 C 0,0 km/h (0 Bft)
25.10.2021 06:10 14,4 C -3,1 C -1,4 C 54 % 83 % 1024,9 hPa 0,0 l/m 0,0 km/h (0 Bft) W-SW 247 -5,6 C -3,1 C 0,0 km/h (0 Bft)
25.10.2021 06:09 14,4 C -3,1 C -1,4 C 54 % 83 % 1024,9 hPa 0,0 l/m 0,0 km/h (0 Bft) W-SW 247 -5,6 C -3,1 C 0,0 km/h (0 Bft)
25.10.2021 06:08 14,4 C -3,1 C -1,2 C 54 % 83 % 1024,9 hPa 0,0 l/m 0,0 km/h (0 Bft) W 270 -5,6 C -3,1 C 0,0 km/h (0 Bft)
25.10.2021 06:07 14,4 C -3,1 C -1,2 C 54 % 83 % 1024,9 hPa 0,0 l/m 0,0 km/h (0 Bft) W 270 -5,6 C -3,1 C 0,0 km/h (0 Bft)
25.10.2021 06:06 14,4 C -3,1 C -1,2 C 54 % 83 % 1024,9 hPa 0,0 l/m 0,0 km/h (0 Bft) N-NW 337 -5,6 C -3,1 C 0,0 km/h (0 Bft)
25.10.2021 06:05 14,4 C -3,1 C -1,2 C 54 % 83 % 1024,9 hPa 0,0 l/m 0,0 km/h (0 Bft) N-NW 337 -5,6 C -3,1 C 0,0 km/h (0 Bft)
25.10.2021 06:04 14,4 C -3,1 C -1,2 C 54 % 83 % 1024,9 hPa 0,0 l/m 0,0 km/h (0 Bft) W 270 -5,6 C -3,1 C 0,0 km/h (0 Bft)
25.10.2021 06:03 14,4 C -3,1 C -1,2 C 54 % 83 % 1024,9 hPa 0,0 l/m 0,0 km/h (0 Bft) W 270 -5,6 C -3,1 C 0,0 km/h (0 Bft)
25.10.2021 06:02 14,4 C -3,1 C -1,2 C 54 % 83 % 1024,9 hPa 0,0 l/m 0,0 km/h (0 Bft) W 270 -5,6 C -3,1 C 0,0 km/h (0 Bft)
25.10.2021 06:01 14,4 C -3,1 C -1,2 C 54 % 83 % 1024,9 hPa 0,0 l/m 0,0 km/h (0 Bft) W 270 -5,6 C -3,1 C 0,0 km/h (0 Bft)
25.10.2021 06:00 14,4 C -3,1 C -1,2 C 54 % 83 % 1024,9 hPa 0,0 l/m 0,0 km/h (0 Bft) W-SW 247 -5,6 C -3,1 C 0,0 km/h (0 Bft)
25.10.2021 05:59 14,4 C -3,1 C -1,2 C 54 % 83 % 1024,9 hPa 0,0 l/m 0,0 km/h (0 Bft) W-SW 247 -5,6 C -3,1 C 0,0 km/h (0 Bft)
25.10.2021 05:58 14,3 C -3,1 C -1,2 C 54 % 83 % 1024,9 hPa 0,0 l/m 0,0 km/h (0 Bft) W 270 -5,6 C -3,1 C 0,0 km/h (0 Bft)
25.10.2021 05:57 14,3 C -3,1 C -1,2 C 54 % 83 % 1024,9 hPa 0,0 l/m 0,0 km/h (0 Bft) W 270 -5,6 C -3,1 C 0,0 km/h (0 Bft)
25.10.2021 05:56 14,3 C -3,1 C -1,2 C 54 % 83 % 1024,9 hPa 0,0 l/m 0,0 km/h (0 Bft) W 270 -5,6 C -3,1 C 0,0 km/h (0 Bft)
25.10.2021 05:55 14,3 C -3,1 C -1,2 C 54 % 83 % 1024,9 hPa 0,0 l/m 0,0 km/h (0 Bft) W 270 -5,6 C -3,1 C 0,0 km/h (0 Bft)
25.10.2021 05:54 14,3 C -3,1 C -1,2 C 54 % 83 % 1024,9 hPa 0,0 l/m 0,0 km/h (0 Bft) W-NW 292 -5,6 C -3,1 C 0,0 km/h (0 Bft)
25.10.2021 05:53 14,3 C -3,1 C -1,2 C 54 % 83 % 1024,9 hPa 0,0 l/m 0,0 km/h (0 Bft) W-NW 292 -5,6 C -3,1 C 0,0 km/h (0 Bft)
25.10.2021 05:52 14,3 C -3,1 C -1,2 C 54 % 83 % 1024,8 hPa 0,0 l/m 0,0 km/h (0 Bft) W-SW 247 -5,6 C -3,1 C 0,0 km/h (0 Bft)
25.10.2021 05:51 14,3 C -3,1 C -1,2 C 54 % 83 % 1024,8 hPa 0,0 l/m 0,0 km/h (0 Bft) W-SW 247 -5,6 C -3,1 C 0,0 km/h (0 Bft)
25.10.2021 05:50 14,3 C -3,1 C -1,2 C 54 % 83 % 1024,8 hPa 0,0 l/m 0,0 km/h (0 Bft) W 270 -5,6 C -3,1 C 0,0 km/h (0 Bft)
25.10.2021 05:49 14,3 C -3,1 C -1,2 C 54 % 83 % 1024,8 hPa 0,0 l/m 0,0 km/h (0 Bft) W 270 -5,6 C -3,1 C 0,0 km/h (0 Bft)
25.10.2021 05:48 14,5 C -3,1 C -1,2 C 54 % 83 % 1024,8 hPa 0,0 l/m 0,0 km/h (0 Bft) W 270 -5,6 C -3,1 C 0,0 km/h (0 Bft)
25.10.2021 05:47 14,5 C -3,1 C -1,2 C 54 % 83 % 1024,8 hPa 0,0 l/m 0,0 km/h (0 Bft) W 270 -5,6 C -3,1 C 0,0 km/h (0 Bft)
25.10.2021 05:46 14,5 C -3,1 C -1,2 C 54 % 83 % 1024,8 hPa 0,0 l/m 0,0 km/h (0 Bft) W 270 -5,6 C -3,1 C 0,0 km/h (0 Bft)
25.10.2021 05:45 14,5 C -3,1 C -1,2 C 54 % 83 % 1024,8 hPa 0,0 l/m 0,0 km/h (0 Bft) W 270 -5,6 C -3,1 C 0,0 km/h (0 Bft)
25.10.2021 05:44 14,5 C -3,1 C -1,2 C 54 % 83 % 1024,8 hPa 0,0 l/m 0,0 km/h (0 Bft) W 270 -5,6 C -3,1 C 0,0 km/h (0 Bft)
25.10.2021 05:43 14,5 C -3,1 C -1,2 C 54 % 83 % 1024,8 hPa 0,0 l/m 0,0 km/h (0 Bft) W 270 -5,6 C -3,1 C 0,0 km/h (0 Bft)
25.10.2021 05:42 14,4 C -3,1 C -1,2 C 54 % 83 % 1024,8 hPa 0,0 l/m 0,0 km/h (0 Bft) W-SW 247 -5,6 C -3,1 C 0,0 km/h (0 Bft)
25.10.2021 05:41 14,4 C -3,1 C -1,2 C 54 % 83 % 1024,8 hPa 0,0 l/m 0,0 km/h (0 Bft) W-SW 247 -5,6 C -3,1 C 0,0 km/h (0 Bft)
25.10.2021 05:40 14,5 C -3,1 C -1,2 C 54 % 83 % 1024,8 hPa 0,0 l/m 0,0 km/h (0 Bft) W 270 -5,6 C -3,1 C 0,0 km/h (0 Bft)
25.10.2021 05:39 14,5 C -3,1 C -1,2 C 54 % 83 % 1024,8 hPa 0,0 l/m 0,0 km/h (0 Bft) W 270 -5,6 C -3,1 C 0,0 km/h (0 Bft)
25.10.2021 05:38 14,4 C -3,1 C -1,1 C 54 % 83 % 1024,8 hPa 0,0 l/m 0,0 km/h (0 Bft) W 270 -5,6 C -3,1 C 0,0 km/h (0 Bft)
25.10.2021 05:37 14,4 C -3,1 C -1,1 C 54 % 83 % 1024,8 hPa 0,0 l/m 0,0 km/h (0 Bft) W 270 -5,6 C -3,1 C 0,0 km/h (0 Bft)
25.10.2021 05:36 14,5 C -3,1 C -1,1 C 54 % 83 % 1024,8 hPa 0,0 l/m 0,0 km/h (0 Bft) W 270 -5,6 C -3,1 C 0,0 km/h (0 Bft)
25.10.2021 05:35 14,5 C -3,1 C -1,1 C 54 % 83 % 1024,8 hPa 0,0 l/m 0,0 km/h (0 Bft) W 270 -5,6 C -3,1 C 0,0 km/h (0 Bft)
25.10.2021 05:34 14,4 C -3,1 C -1,1 C 54 % 83 % 1024,8 hPa 0,0 l/m 0,0 km/h (0 Bft) W 270 -5,6 C -3,1 C 0,0 km/h (0 Bft)
25.10.2021 05:33 14,4 C -3,1 C -1,1 C 54 % 83 % 1024,8 hPa 0,0 l/m 0,0 km/h (0 Bft) W 270 -5,6 C -3,1 C 0,0 km/h (0 Bft)
25.10.2021 05:32 14,4 C -3,0 C -1,1 C 54 % 83 % 1024,9 hPa 0,0 l/m 0,0 km/h (0 Bft) W 270 -5,5 C -3,0 C 0,0 km/h (0 Bft)
25.10.2021 05:31 14,4 C -3,0 C -1,1 C 54 % 83 % 1024,9 hPa 0,0 l/m 0,0 km/h (0 Bft) W 270 -5,5 C -3,0 C 0,0 km/h (0 Bft)
25.10.2021 05:30 14,4 C -3,0 C -1,1 C 54 % 83 % 1024,9 hPa 0,0 l/m 0,0 km/h (0 Bft) W 270 -5,5 C -3,0 C 0,0 km/h (0 Bft)
25.10.2021 05:29 14,4 C -3,0 C -1,1 C 54 % 83 % 1024,9 hPa 0,0 l/m 0,0 km/h (0 Bft) W 270 -5,5 C -3,0 C 0,0 km/h (0 Bft)
25.10.2021 05:28 14,4 C -3,0 C -1,1 C 54 % 83 % 1024,9 hPa 0,0 l/m 0,0 km/h (0 Bft) W 270 -5,5 C -3,0 C 0,0 km/h (0 Bft)
25.10.2021 05:27 14,4 C -3,0 C -1,1 C 54 % 83 % 1024,9 hPa 0,0 l/m 0,0 km/h (0 Bft) W 270 -5,5 C -3,0 C 0,0 km/h (0 Bft)
25.10.2021 05:26 14,4 C -3,0 C -1,1 C 54 % 83 % 1024,9 hPa 0,0 l/m 0,0 km/h (0 Bft) W 270 -5,5 C -3,0 C 0,0 km/h (0 Bft)
25.10.2021 05:25 14,4 C -3,0 C -1,1 C 54 % 83 % 1024,9 hPa 0,0 l/m 0,0 km/h (0 Bft) W 270 -5,5 C -3,0 C 0,0 km/h (0 Bft)
25.10.2021 05:24 14,4 C -3,1 C -1,1 C 54 % 83 % 1024,9 hPa 0,0 l/m 0,0 km/h (0 Bft) W-NW 292 -5,6 C -3,1 C 0,0 km/h (0 Bft)
25.10.2021 05:23 14,4 C -3,1 C -1,1 C 54 % 83 % 1024,9 hPa 0,0 l/m 0,0 km/h (0 Bft) W-NW 292 -5,6 C -3,1 C 0,0 km/h (0 Bft)
25.10.2021 05:22 14,6 C -3,1 C -1,1 C 54 % 83 % 1024,9 hPa 0,0 l/m 0,0 km/h (0 Bft) W 270 -5,6 C -3,1 C 0,0 km/h (0 Bft)
25.10.2021 05:21 14,6 C -3,1 C -1,1 C 54 % 83 % 1024,9 hPa 0,0 l/m 0,0 km/h (0 Bft) W 270 -5,6 C -3,1 C 0,0 km/h (0 Bft)
25.10.2021 05:20 14,6 C -3,1 C -1,1 C 54 % 83 % 1024,9 hPa 0,0 l/m 0,0 km/h (0 Bft) W-NW 292 -5,6 C -3,1 C 0,0 km/h (0 Bft)
25.10.2021 05:19 14,6 C -3,1 C -1,1 C 54 % 83 % 1024,9 hPa 0,0 l/m 0,0 km/h (0 Bft) W-NW 292 -5,6 C -3,1 C 0,0 km/h (0 Bft)
25.10.2021 05:18 14,6 C -3,0 C -1,1 C 54 % 83 % 1024,9 hPa 0,0 l/m 0,0 km/h (0 Bft) W 270 -5,5 C -3,0 C 0,0 km/h (0 Bft)
25.10.2021 05:17 14,6 C -3,0 C -1,1 C 54 % 83 % 1024,9 hPa 0,0 l/m 0,0 km/h (0 Bft) W 270 -5,5 C -3,0 C 0,0 km/h (0 Bft)
25.10.2021 05:16 14,6 C -3,0 C -1,1 C 54 % 83 % 1024,9 hPa 0,0 l/m 0,0 km/h (0 Bft) W-NW 292 -5,5 C -3,0 C 0,0 km/h (0 Bft)
25.10.2021 05:15 14,6 C -3,0 C -1,1 C 54 % 83 % 1024,9 hPa 0,0 l/m 0,0 km/h (0 Bft) W-NW 292 -5,5 C -3,0 C 0,0 km/h (0 Bft)
25.10.2021 05:14 14,6 C -3,0 C -1,0 C 54 % 83 % 1024,9 hPa 0,0 l/m 0,0 km/h (0 Bft) W 270 -5,5 C -3,0 C 0,0 km/h (0 Bft)
25.10.2021 05:13 14,6 C -3,0 C -1,0 C 54 % 83 % 1024,9 hPa 0,0 l/m 0,0 km/h (0 Bft) W 270 -5,5 C -3,0 C 0,0 km/h (0 Bft)
25.10.2021 05:12 14,6 C -3,0 C -1,0 C 54 % 83 % 1024,6 hPa 0,0 l/m 0,0 km/h (0 Bft) W-SW 247 -5,5 C -3,0 C 0,0 km/h (0 Bft)
25.10.2021 05:11 14,6 C -3,0 C -1,0 C 54 % 83 % 1024,6 hPa 0,0 l/m 0,0 km/h (0 Bft) W-SW 247 -5,5 C -3,0 C 0,0 km/h (0 Bft)
25.10.2021 05:10 14,6 C -3,0 C -1,0 C 54 % 83 % 1024,6 hPa 0,0 l/m 0,0 km/h (0 Bft) W-NW 292 -5,5 C -3,0 C 0,0 km/h (0 Bft)
25.10.2021 05:09 14,6 C -3,0 C -1,0 C 54 % 83 % 1024,6 hPa 0,0 l/m 0,0 km/h (0 Bft) W-NW 292 -5,5 C -3,0 C 0,0 km/h (0 Bft)
25.10.2021 05:08 14,6 C -3,0 C -1,0 C 54 % 83 % 1024,6 hPa 0,0 l/m 0,0 km/h (0 Bft) W 270 -5,5 C -3,0 C 0,0 km/h (0 Bft)
25.10.2021 05:07 14,6 C -3,0 C -1,0 C 54 % 83 % 1024,6 hPa 0,0 l/m 0,0 km/h (0 Bft) W 270 -5,5 C -3,0 C 0,0 km/h (0 Bft)
25.10.2021 05:06 14,6 C -2,8 C -1,0 C 54 % 83 % 1024,6 hPa 0,0 l/m 0,0 km/h (0 Bft) W 270 -5,3 C -2,8 C 0,0 km/h (0 Bft)
25.10.2021 05:05 14,6 C -2,8 C -1,0 C 54 % 83 % 1024,6 hPa 0,0 l/m 0,0 km/h (0 Bft) W 270 -5,3 C -2,8 C 0,0 km/h (0 Bft)
25.10.2021 05:04 14,6 C -2,8 C -1,0 C 54 % 83 % 1024,6 hPa 0,0 l/m 0,0 km/h (0 Bft) W-NW 292 -5,3 C -2,8 C 0,0 km/h (0 Bft)
25.10.2021 05:03 14,6 C -2,8 C -1,0 C 54 % 83 % 1024,6 hPa 0,0 l/m 0,0 km/h (0 Bft) W-NW 292 -5,3 C -2,8 C 0,0 km/h (0 Bft)
25.10.2021 05:02 14,6 C -2,8 C -1,0 C 54 % 83 % 1024,6 hPa 0,0 l/m 0,0 km/h (0 Bft) NW 315 -5,3 C -2,8 C 0,0 km/h (0 Bft)
25.10.2021 05:01 14,6 C -2,8 C -1,0 C 54 % 83 % 1024,6 hPa 0,0 l/m 0,0 km/h (0 Bft) NW 315 -5,3 C -2,8 C 0,0 km/h (0 Bft)
25.10.2021 05:00 14,6 C -2,8 C -1,0 C 54 % 83 % 1024,6 hPa 0,0 l/m 0,0 km/h (0 Bft) W 270 -5,3 C -2,8 C 0,0 km/h (0 Bft)
25.10.2021 04:59 14,6 C -2,8 C -1,0 C 54 % 83 % 1024,6 hPa 0,0 l/m 0,0 km/h (0 Bft) W 270 -5,3 C -2,8 C 0,0 km/h (0 Bft)
25.10.2021 04:58 14,6 C -2,8 C -1,0 C 54 % 83 % 1024,6 hPa 0,0 l/m 0,0 km/h (0 Bft) NW 315 -5,3 C -2,8 C 0,0 km/h (0 Bft)
25.10.2021 04:57 14,6 C -2,8 C -1,0 C 54 % 83 % 1024,6 hPa 0,0 l/m 0,0 km/h (0 Bft) NW 315 -5,3 C -2,8 C 0,0 km/h (0 Bft)
25.10.2021 04:56 14,6 C -2,8 C -1,0 C 54 % 83 % 1024,6 hPa 0,0 l/m 0,0 km/h (0 Bft) W 270 -5,3 C -2,8 C 0,0 km/h (0 Bft)
25.10.2021 04:55 14,6 C -2,8 C -1,0 C 54 % 83 % 1024,6 hPa 0,0 l/m 0,0 km/h (0 Bft) W 270 -5,3 C -2,8 C 0,0 km/h (0 Bft)
25.10.2021 04:54 14,7 C -2,8 C -1,0 C 54 % 83 % 1024,6 hPa 0,0 l/m 0,0 km/h (0 Bft) W 270 -5,3 C -2,8 C 0,0 km/h (0 Bft)
25.10.2021 04:53 14,7 C -2,8 C -1,0 C 54 % 83 % 1024,6 hPa 0,0 l/m 0,0 km/h (0 Bft) W 270 -5,3 C -2,8 C 0,0 km/h (0 Bft)
25.10.2021 04:52 14,7 C -2,8 C -1,0 C 54 % 83 % 1025,0 hPa 0,0 l/m 0,0 km/h (0 Bft) W 270 -5,3 C -2,8 C 0,0 km/h (0 Bft)
25.10.2021 04:51 14,7 C -2,8 C -1,0 C 54 % 83 % 1025,0 hPa 0,0 l/m 0,0 km/h (0 Bft) W 270 -5,3 C -2,8 C 0,0 km/h (0 Bft)
25.10.2021 04:50 14,7 C -2,8 C -0,8 C 54 % 83 % 1025,0 hPa 0,0 l/m 0,0 km/h (0 Bft) W 270 -5,3 C -2,8 C 0,0 km/h (0 Bft)
25.10.2021 04:49 14,7 C -2,8 C -0,8 C 54 % 83 % 1025,0 hPa 0,0 l/m 0,0 km/h (0 Bft) W 270 -5,3 C -2,8 C 0,0 km/h (0 Bft)
25.10.2021 04:48 14,7 C -2,8 C -0,8 C 54 % 83 % 1025,0 hPa 0,0 l/m 0,0 km/h (0 Bft) W 270 -5,3 C -2,8 C 0,0 km/h (0 Bft)
25.10.2021 04:47 14,7 C -2,8 C -0,8 C 54 % 83 % 1025,0 hPa 0,0 l/m 0,0 km/h (0 Bft) W 270 -5,3 C -2,8 C 0,0 km/h (0 Bft)
25.10.2021 04:46 14,7 C -2,7 C -0,8 C 54 % 83 % 1025,0 hPa 0,0 l/m 0,0 km/h (0 Bft) W 270 -5,2 C -2,7 C 0,0 km/h (0 Bft)
25.10.2021 04:45 14,7 C -2,7 C -0,8 C 54 % 83 % 1025,0 hPa 0,0 l/m 0,0 km/h (0 Bft) W 270 -5,2 C -2,7 C 0,0 km/h (0 Bft)
25.10.2021 04:44 14,7 C -2,7 C -0,8 C 54 % 83 % 1025,0 hPa 0,0 l/m 0,0 km/h (0 Bft) NW 315 -5,2 C -2,7 C 0,0 km/h (0 Bft)
25.10.2021 04:43 14,7 C -2,7 C -0,8 C 54 % 83 % 1025,0 hPa 0,0 l/m 0,0 km/h (0 Bft) NW 315 -5,2 C -2,7 C 0,0 km/h (0 Bft)
25.10.2021 04:42 14,7 C -2,8 C -0,8 C 54 % 83 % 1025,0 hPa 0,0 l/m 0,0 km/h (0 Bft) W-NW 292 -5,3 C -2,8 C 0,0 km/h (0 Bft)
25.10.2021 04:41 14,7 C -2,8 C -0,8 C 54 % 83 % 1025,0 hPa 0,0 l/m 0,0 km/h (0 Bft) W-NW 292 -5,3 C -2,8 C 0,0 km/h (0 Bft)
25.10.2021 04:40 14,7 C -2,8 C -0,8 C 54 % 83 % 1025,0 hPa 0,0 l/m 0,0 km/h (0 Bft) W 270 -5,3 C -2,8 C 0,0 km/h (0 Bft)
25.10.2021 04:39 14,7 C -2,8 C -0,8 C 54 % 83 % 1025,0 hPa 0,0 l/m 0,0 km/h (0 Bft) W 270 -5,3 C -2,8 C 0,0 km/h (0 Bft)
25.10.2021 04:38 14,6 C -2,8 C -0,8 C 54 % 83 % 1025,0 hPa 0,0 l/m 0,0 km/h (0 Bft) W-NW 292 -5,3 C -2,8 C 0,0 km/h (0 Bft)
25.10.2021 04:37 14,6 C -2,8 C -0,8 C 54 % 83 % 1025,0 hPa 0,0 l/m 0,0 km/h (0 Bft) W-NW 292 -5,3 C -2,8 C 0,0 km/h (0 Bft)
25.10.2021 04:36 14,6 C -2,7 C -0,7 C 54 % 83 % 1025,0 hPa 0,0 l/m 0,0 km/h (0 Bft) W 270 -5,2 C -2,7 C 0,0 km/h (0 Bft)
25.10.2021 04:35 14,6 C -2,7 C -0,7 C 54 % 83 % 1025,0 hPa 0,0 l/m 0,0 km/h (0 Bft) W 270 -5,2 C -2,7 C 0,0 km/h (0 Bft)
25.10.2021 04:34 14,6 C -2,7 C -0,8 C 54 % 83 % 1025,0 hPa 0,0 l/m 0,0 km/h (0 Bft) W 270 -5,2 C -2,7 C 0,0 km/h (0 Bft)
25.10.2021 04:33 14,6 C -2,7 C -0,8 C 54 % 83 % 1025,0 hPa 0,0 l/m 0,0 km/h (0 Bft) W 270 -5,2 C -2,7 C 0,0 km/h (0 Bft)
25.10.2021 04:32 14,8 C -2,7 C -0,8 C 54 % 83 % 1024,9 hPa 0,0 l/m 0,0 km/h (0 Bft) W-SW 247 -5,2 C -2,7 C 0,0 km/h (0 Bft)
25.10.2021 04:31 14,8 C -2,7 C -0,8 C 54 % 83 % 1024,9 hPa 0,0 l/m 0,0 km/h (0 Bft) W-SW 247 -5,2 C -2,7 C 0,0 km/h (0 Bft)
25.10.2021 04:30 14,8 C -2,7 C -0,7 C 54 % 83 % 1024,9 hPa 0,0 l/m 0,0 km/h (0 Bft) W-NW 292 -5,2 C -2,7 C 0,0 km/h (0 Bft)
25.10.2021 04:29 14,8 C -2,7 C -0,7 C 54 % 83 % 1024,9 hPa 0,0 l/m 0,0 km/h (0 Bft) W-NW 292 -5,2 C -2,7 C 0,0 km/h (0 Bft)
25.10.2021 04:28 14,8 C -2,6 C -0,7 C 54 % 83 % 1024,9 hPa 0,0 l/m 0,0 km/h (0 Bft) O-NO 67 -5,1 C -2,6 C 0,0 km/h (0 Bft)
25.10.2021 04:27 14,8 C -2,6 C -0,7 C 54 % 83 % 1024,9 hPa 0,0 l/m 0,0 km/h (0 Bft) O-NO 67 -5,1 C -2,6 C 0,0 km/h (0 Bft)
25.10.2021 04:26 14,8 C -2,6 C -0,7 C 54 % 83 % 1024,9 hPa 0,0 l/m 0,0 km/h (0 Bft) O-NO 67 -5,1 C -2,6 C 0,0 km/h (0 Bft)
25.10.2021 04:25 14,8 C -2,6 C -0,7 C 54 % 83 % 1024,9 hPa 0,0 l/m 0,0 km/h (0 Bft) O-NO 67 -5,1 C -2,6 C 0,0 km/h (0 Bft)
25.10.2021 04:24 14,8 C -2,6 C -0,7 C 54 % 83 % 1024,9 hPa 0,0 l/m 0,0 km/h (0 Bft) O-NO 67 -5,1 C -2,6 C 0,0 km/h (0 Bft)
25.10.2021 04:23 14,8 C -2,6 C -0,7 C 54 % 83 % 1024,9 hPa 0,0 l/m 0,0 km/h (0 Bft) O-NO 67 -5,1 C -2,6 C 0,0 km/h (0 Bft)
25.10.2021 04:22 14,8 C -2,6 C -0,7 C 54 % 83 % 1024,9 hPa 0,0 l/m 0,0 km/h (0 Bft) O-NO 67 -5,1 C -2,6 C 0,0 km/h (0 Bft)
25.10.2021 04:21 14,8 C -2,6 C -0,7 C 54 % 83 % 1024,9 hPa 0,0 l/m 0,0 km/h (0 Bft) O-NO 67 -5,1 C -2,6 C 0,0 km/h (0 Bft)
25.10.2021 04:20 14,8 C -2,6 C -0,7 C 54 % 83 % 1024,9 hPa 0,0 l/m 0,0 km/h (0 Bft) N-NO 22 -5,1 C -2,6 C 0,0 km/h (0 Bft)
25.10.2021 04:19 14,8 C -2,6 C -0,7 C 54 % 83 % 1024,9 hPa 0,0 l/m 0,0 km/h (0 Bft) N-NO 22 -5,1 C -2,6 C 0,0 km/h (0 Bft)
25.10.2021 04:18 14,8 C -2,6 C -0,7 C 54 % 83 % 1024,9 hPa 0,0 l/m 0,0 km/h (0 Bft) N 360 -5,1 C -2,6 C 0,0 km/h (0 Bft)
25.10.2021 04:17 14,8 C -2,6 C -0,7 C 54 % 83 % 1024,9 hPa 0,0 l/m 0,0 km/h (0 Bft) N 360 -5,1 C -2,6 C 0,0 km/h (0 Bft)
25.10.2021 04:16 14,8 C -2,6 C -0,7 C 54 % 83 % 1024,9 hPa 0,0 l/m 0,0 km/h (0 Bft) W-SW 247 -5,1 C -2,6 C 0,0 km/h (0 Bft)
25.10.2021 04:15 14,8 C -2,6 C -0,7 C 54 % 83 % 1024,9 hPa 0,0 l/m 0,0 km/h (0 Bft) W-SW 247 -5,1 C -2,6 C 0,0 km/h (0 Bft)
25.10.2021 04:14 14,8 C -2,4 C -0,5 C 54 % 83 % 1024,9 hPa 0,0 l/m 0,0 km/h (0 Bft) SW 225 -4,9 C -2,4 C 0,0 km/h (0 Bft)
25.10.2021 04:13 14,8 C -2,4 C -0,5 C 54 % 83 % 1024,9 hPa 0,0 l/m 0,0 km/h (0 Bft) SW 225 -4,9 C -2,4 C 0,0 km/h (0 Bft)
25.10.2021 04:12 14,8 C -2,4 C -0,5 C 54 % 83 % 1025,1 hPa 0,0 l/m 0,0 km/h (0 Bft) S-SO 157 -4,9 C -2,4 C 0,0 km/h (0 Bft)
25.10.2021 04:11 14,8 C -2,4 C -0,5 C 54 % 83 % 1025,1 hPa 0,0 l/m 0,0 km/h (0 Bft) S-SO 157 -4,9 C -2,4 C 0,0 km/h (0 Bft)
25.10.2021 04:10 14,8 C -2,4 C -0,5 C 54 % 83 % 1025,1 hPa 0,0 l/m 0,0 km/h (0 Bft) S-SO 157 -4,9 C -2,4 C 0,0 km/h (0 Bft)
25.10.2021 04:09 14,8 C -2,4 C -0,5 C 54 % 83 % 1025,1 hPa 0,0 l/m 0,0 km/h (0 Bft) S-SO 157 -4,9 C -2,4 C 0,0 km/h (0 Bft)
25.10.2021 04:08 14,8 C -2,4 C -0,5 C 54 % 83 % 1025,1 hPa 0,0 l/m 0,0 km/h (0 Bft) W-SW 247 -4,9 C -2,4 C 0,0 km/h (0 Bft)
25.10.2021 04:07 14,8 C -2,4 C -0,5 C 54 % 83 % 1025,1 hPa 0,0 l/m 0,0 km/h (0 Bft) W-SW 247 -4,9 C -2,4 C 0,0 km/h (0 Bft)
25.10.2021 04:06 14,8 C -2,4 C -0,5 C 54 % 83 % 1025,1 hPa 0,0 l/m 0,0 km/h (0 Bft) W-SW 247 -4,9 C -2,4 C 0,0 km/h (0 Bft)
25.10.2021 04:05 14,8 C -2,4 C -0,5 C 54 % 83 % 1025,1 hPa 0,0 l/m 0,0 km/h (0 Bft) W-SW 247 -4,9 C -2,4 C 0,0 km/h (0 Bft)
25.10.2021 04:04 14,8 C -2,4 C -0,5 C 54 % 83 % 1025,1 hPa 0,0 l/m 0,0 km/h (0 Bft) W 270 -4,9 C -2,4 C 0,0 km/h (0 Bft)
25.10.2021 04:03 14,8 C -2,4 C -0,5 C 54 % 83 % 1025,1 hPa 0,0 l/m 0,0 km/h (0 Bft) W 270 -4,9 C -2,4 C 0,0 km/h (0 Bft)
25.10.2021 04:02 14,8 C -2,4 C -0,5 C 54 % 83 % 1025,1 hPa 0,0 l/m 0,0 km/h (0 Bft) W 270 -4,9 C -2,4 C 0,0 km/h (0 Bft)
25.10.2021 04:01 14,8 C -2,4 C -0,5 C 54 % 83 % 1025,1 hPa 0,0 l/m 0,0 km/h (0 Bft) W 270 -4,9 C -2,4 C 0,0 km/h (0 Bft)
25.10.2021 04:00 14,8 C -2,4 C -0,5 C 54 % 83 % 1025,1 hPa 0,0 l/m 0,0 km/h (0 Bft) W-NW 292 -4,9 C -2,4 C 0,0 km/h (0 Bft)
25.10.2021 03:59 14,8 C -2,4 C -0,5 C 54 % 83 % 1025,1 hPa 0,0 l/m 0,0 km/h (0 Bft) W-NW 292 -4,9 C -2,4 C 0,0 km/h (0 Bft)
25.10.2021 03:58 14,8 C -2,4 C -0,5 C 54 % 83 % 1025,1 hPa 0,0 l/m 0,0 km/h (0 Bft) W-SW 247 -4,9 C -2,4 C 0,0 km/h (0 Bft)
25.10.2021 03:57 14,8 C -2,4 C -0,5 C 54 % 83 % 1025,1 hPa 0,0 l/m 0,0 km/h (0 Bft) W-SW 247 -4,9 C -2,4 C 0,0 km/h (0 Bft)
25.10.2021 03:56 14,9 C -2,3 C -0,4 C 54 % 83 % 1025,1 hPa 0,0 l/m 0,0 km/h (0 Bft) W-SW 247 -4,8 C -2,3 C 0,0 km/h (0 Bft)
25.10.2021 03:55 14,9 C -2,3 C -0,4 C 54 % 83 % 1025,1 hPa 0,0 l/m 0,0 km/h (0 Bft) W-SW 247 -4,8 C -2,3 C 0,0 km/h (0 Bft)
25.10.2021 03:54 14,9 C -2,3 C -0,4 C 54 % 83 % 1025,1 hPa 0,0 l/m 0,0 km/h (0 Bft) W-NW 292 -4,8 C -2,3 C 0,0 km/h (0 Bft)
25.10.2021 03:53 14,9 C -2,3 C -0,4 C 54 % 83 % 1025,1 hPa 0,0 l/m 0,0 km/h (0 Bft) W-NW 292 -4,8 C -2,3 C 0,0 km/h (0 Bft)
25.10.2021 03:52 14,9 C -2,3 C -0,4 C 54 % 83 % 1025,1 hPa 0,0 l/m 0,0 km/h (0 Bft) W-SW 247 -4,8 C -2,3 C 0,0 km/h (0 Bft)
25.10.2021 03:51 14,9 C -2,3 C -0,4 C 54 % 83 % 1025,1 hPa 0,0 l/m 0,0 km/h (0 Bft) W-SW 247 -4,8 C -2,3 C 0,0 km/h (0 Bft)
25.10.2021 03:50 14,8 C -2,3 C -0,4 C 54 % 83 % 1025,1 hPa 0,0 l/m 0,0 km/h (0 Bft) N 360 -4,8 C -2,3 C 0,0 km/h (0 Bft)
25.10.2021 03:49 14,8 C -2,3 C -0,4 C 54 % 83 % 1025,1 hPa 0,0 l/m 0,0 km/h (0 Bft) N 360 -4,8 C -2,3 C 0,0 km/h (0 Bft)
25.10.2021 03:48 14,8 C -2,3 C -0,4 C 54 % 83 % 1025,1 hPa 0,0 l/m 0,0 km/h (0 Bft) W 270 -4,8 C -2,3 C 0,0 km/h (0 Bft)
25.10.2021 03:47 14,8 C -2,3 C -0,4 C 54 % 83 % 1025,1 hPa 0,0 l/m 0,0 km/h (0 Bft) W 270 -4,8 C -2,3 C 0,0 km/h (0 Bft)
25.10.2021 03:46 14,8 C -2,3 C -0,4 C 54 % 83 % 1025,1 hPa 0,0 l/m 0,0 km/h (0 Bft) W 270 -4,8 C -2,3 C 0,0 km/h (0 Bft)
25.10.2021 03:45 14,8 C -2,3 C -0,4 C 54 % 83 % 1025,1 hPa 0,0 l/m 0,0 km/h (0 Bft) W 270 -4,8 C -2,3 C 0,0 km/h (0 Bft)
25.10.2021 03:44 14,8 C -2,3 C -0,4 C 54 % 82 % 1025,1 hPa 0,0 l/m 0,0 km/h (0 Bft) W 270 -4,9 C -2,3 C 0,0 km/h (0 Bft)
25.10.2021 03:43 14,8 C -2,3 C -0,4 C 54 % 82 % 1025,1 hPa 0,0 l/m 0,0 km/h (0 Bft) W 270 -4,9 C -2,3 C 0,0 km/h (0 Bft)
25.10.2021 03:42 14,8 C -2,3 C -0,4 C 54 % 83 % 1025,1 hPa 0,0 l/m 0,0 km/h (0 Bft) W 270 -4,8 C -2,3 C 0,0 km/h (0 Bft)
25.10.2021 03:41 14,8 C -2,3 C -0,4 C 54 % 83 % 1025,1 hPa 0,0 l/m 0,0 km/h (0 Bft) W 270 -4,8 C -2,3 C 0,0 km/h (0 Bft)
25.10.2021 03:40 14,8 C -2,3 C -0,3 C 54 % 83 % 1025,1 hPa 0,0 l/m 0,0 km/h (0 Bft) W 270 -4,8 C -2,3 C 0,0 km/h (0 Bft)
25.10.2021 03:39 14,8 C -2,3 C -0,3 C 54 % 83 % 1025,1 hPa 0,0 l/m 0,0 km/h (0 Bft) W 270 -4,8 C -2,3 C 0,0 km/h (0 Bft)
25.10.2021 03:38 14,8 C -2,3 C -0,3 C 54 % 82 % 1025,1 hPa 0,0 l/m 0,0 km/h (0 Bft) W 270 -4,9 C -2,3 C 0,0 km/h (0 Bft)
25.10.2021 03:37 14,8 C -2,3 C -0,3 C 54 % 82 % 1025,1 hPa 0,0 l/m 0,0 km/h (0 Bft) W 270 -4,9 C -2,3 C 0,0 km/h (0 Bft)
25.10.2021 03:36 15,0 C -2,3 C -0,3 C 54 % 82 % 1025,1 hPa 0,0 l/m 0,0 km/h (0 Bft) W 270 -4,9 C -2,3 C 0,0 km/h (0 Bft)
25.10.2021 03:35 15,0 C -2,3 C -0,3 C 54 % 82 % 1025,1 hPa 0,0 l/m 0,0 km/h (0 Bft) W 270 -4,9 C -2,3 C 0,0 km/h (0 Bft)
25.10.2021 03:34 15,0 C -2,3 C -0,3 C 54 % 82 % 1025,1 hPa 0,0 l/m 0,0 km/h (0 Bft) W 270 -4,9 C -2,3 C 0,0 km/h (0 Bft)
25.10.2021 03:33 15,0 C -2,3 C -0,3 C 54 % 82 % 1025,1 hPa 0,0 l/m 0,0 km/h (0 Bft) W 270 -4,9 C -2,3 C 0,0 km/h (0 Bft)
25.10.2021 03:32 15,0 C -2,3 C -0,3 C 54 % 82 % 1025,5 hPa 0,0 l/m 0,0 km/h (0 Bft) W 270 -4,9 C -2,3 C 0,0 km/h (0 Bft)
25.10.2021 03:31 15,0 C -2,3 C -0,3 C 54 % 82 % 1025,5 hPa 0,0 l/m 0,0 km/h (0 Bft) W 270 -4,9 C -2,3 C 0,0 km/h (0 Bft)
25.10.2021 03:30 15,0 C -2,3 C -0,3 C 54 % 82 % 1025,5 hPa 0,0 l/m 0,0 km/h (0 Bft) W-SW 247 -4,9 C -2,3 C 0,0 km/h (0 Bft)
25.10.2021 03:29 15,0 C -2,3 C -0,3 C 54 % 82 % 1025,5 hPa 0,0 l/m 0,0 km/h (0 Bft) W-SW 247 -4,9 C -2,3 C 0,0 km/h (0 Bft)
25.10.2021 03:28 15,0 C -2,2 C -0,3 C 54 % 82 % 1025,5 hPa 0,0 l/m 0,0 km/h (0 Bft) W 270 -4,8 C -2,2 C 0,0 km/h (0 Bft)
25.10.2021 03:27 15,0 C -2,2 C -0,3 C 54 % 82 % 1025,5 hPa 0,0 l/m 0,0 km/h (0 Bft) W 270 -4,8 C -2,2 C 0,0 km/h (0 Bft)
25.10.2021 03:26 15,0 C -2,2 C -0,3 C 54 % 82 % 1025,5 hPa 0,0 l/m 0,0 km/h (0 Bft) W 270 -4,8 C -2,2 C 0,0 km/h (0 Bft)
25.10.2021 03:25 15,0 C -2,2 C -0,3 C 54 % 82 % 1025,5 hPa 0,0 l/m 0,0 km/h (0 Bft) W 270 -4,8 C -2,2 C 0,0 km/h (0 Bft)
25.10.2021 03:24 15,0 C -2,2 C -0,3 C 54 % 82 % 1025,5 hPa 0,0 l/m 0,0 km/h (0 Bft) N 360 -4,8 C -2,2 C 0,0 km/h (0 Bft)
25.10.2021 03:23 15,0 C -2,2 C -0,3 C 54 % 82 % 1025,5 hPa 0,0 l/m 0,0 km/h (0 Bft) N 360 -4,8 C -2,2 C 0,0 km/h (0 Bft)
25.10.2021 03:22 15,0 C -2,2 C -0,3 C 54 % 82 % 1025,5 hPa 0,0 l/m 0,0 km/h (0 Bft) N-NW 337 -4,8 C -2,2 C 0,0 km/h (0 Bft)
25.10.2021 03:21 15,0 C -2,2 C -0,3 C 54 % 82 % 1025,5 hPa 0,0 l/m 0,0 km/h (0 Bft) N-NW 337 -4,8 C -2,2 C 0,0 km/h (0 Bft)
25.10.2021 03:20 15,0 C -2,3 C -0,3 C 54 % 82 % 1025,5 hPa 0,0 l/m 0,0 km/h (0 Bft) W 270 -4,9 C -2,3 C 0,0 km/h (0 Bft)
25.10.2021 03:19 15,0 C -2,3 C -0,3 C 54 % 82 % 1025,5 hPa 0,0 l/m 0,0 km/h (0 Bft) W 270 -4,9 C -2,3 C 0,0 km/h (0 Bft)
25.10.2021 03:18 14,9 C -2,2 C -0,3 C 54 % 82 % 1025,5 hPa 0,0 l/m 0,0 km/h (0 Bft) NW 315 -4,8 C -2,2 C 0,0 km/h (0 Bft)
25.10.2021 03:17 14,9 C -2,2 C -0,3 C 54 % 82 % 1025,5 hPa 0,0 l/m 0,0 km/h (0 Bft) NW 315 -4,8 C -2,2 C 0,0 km/h (0 Bft)
25.10.2021 03:16 15,0 C -2,2 C -0,1 C 54 % 82 % 1025,5 hPa 0,0 l/m 0,0 km/h (0 Bft) W 270 -4,8 C -2,2 C 0,0 km/h (0 Bft)
25.10.2021 03:15 15,0 C -2,2 C -0,1 C 54 % 82 % 1025,5 hPa 0,0 l/m 0,0 km/h (0 Bft) W 270 -4,8 C -2,2 C 0,0 km/h (0 Bft)
25.10.2021 03:14 14,9 C -2,2 C -0,1 C 54 % 82 % 1025,5 hPa 0,0 l/m 0,0 km/h (0 Bft) W 270 -4,8 C -2,2 C 0,0 km/h (0 Bft)
25.10.2021 03:13 14,9 C -2,2 C -0,1 C 54 % 82 % 1025,5 hPa 0,0 l/m 0,0 km/h (0 Bft) W 270 -4,8 C -2,2 C 0,0 km/h (0 Bft)
25.10.2021 03:12 15,1 C -2,2 C -0,1 C 54 % 82 % 1025,6 hPa 0,0 l/m 0,0 km/h (0 Bft) S-SW 202 -4,8 C -2,2 C 0,0 km/h (0 Bft)
25.10.2021 03:11 15,1 C -2,2 C -0,1 C 54 % 82 % 1025,6 hPa 0,0 l/m 0,0 km/h (0 Bft) S-SW 202 -4,8 C -2,2 C 0,0 km/h (0 Bft)
25.10.2021 03:10 15,1 C -2,2 C -0,1 C 54 % 82 % 1025,6 hPa 0,0 l/m 0,0 km/h (0 Bft) W 270 -4,8 C -2,2 C 0,0 km/h (0 Bft)
25.10.2021 03:09 15,1 C -2,2 C -0,1 C 54 % 82 % 1025,6 hPa 0,0 l/m 0,0 km/h (0 Bft) W 270 -4,8 C -2,2 C 0,0 km/h (0 Bft)
25.10.2021 03:08 14,9 C -2,2 C 0,0 C 54 % 82 % 1025,6 hPa 0,0 l/m 0,0 km/h (0 Bft) W 270 -4,8 C -2,2 C 0,0 km/h (0 Bft)
25.10.2021 03:07 14,9 C -2,2 C 0,0 C 54 % 82 % 1025,6 hPa 0,0 l/m 0,0 km/h (0 Bft) W 270 -4,8 C -2,2 C 0,0 km/h (0 Bft)
25.10.2021 03:06 15,1 C -2,2 C 0,0 C 54 % 82 % 1025,6 hPa 0,0 l/m 0,0 km/h (0 Bft) W 270 -4,8 C -2,2 C 0,0 km/h (0 Bft)
25.10.2021 03:05 15,1 C -2,2 C 0,0 C 54 % 82 % 1025,6 hPa 0,0 l/m 0,0 km/h (0 Bft) W 270 -4,8 C -2,2 C 0,0 km/h (0 Bft)
25.10.2021 03:04 15,1 C -2,2 C 0,0 C 54 % 82 % 1025,6 hPa 0,0 l/m 0,0 km/h (0 Bft) W-NW 292 -4,8 C -2,2 C 0,0 km/h (0 Bft)
25.10.2021 03:03 15,1 C -2,2 C 0,0 C 54 % 82 % 1025,6 hPa 0,0 l/m 0,0 km/h (0 Bft) W-NW 292 -4,8 C -2,2 C 0,0 km/h (0 Bft)
25.10.2021 03:02 15,1 C -2,2 C 0,0 C 54 % 82 % 1025,6 hPa 0,0 l/m 0,0 km/h (0 Bft) W-SW 247 -4,8 C -2,2 C 0,0 km/h (0 Bft)
25.10.2021 03:01 15,1 C -2,2 C 0,0 C 54 % 82 % 1025,6 hPa 0,0 l/m 0,0 km/h (0 Bft) W-SW 247 -4,8 C -2,2 C 0,0 km/h (0 Bft)
25.10.2021 03:00 15,1 C -2,2 C 0,0 C 54 % 82 % 1025,6 hPa 0,0 l/m 0,0 km/h (0 Bft) NW 315 -4,8 C -2,2 C 0,0 km/h (0 Bft)
25.10.2021 02:59 15,1 C -2,2 C 0,0 C 54 % 82 % 1025,6 hPa 0,0 l/m 0,0 km/h (0 Bft) NW 315 -4,8 C -2,2 C 0,0 km/h (0 Bft)
25.10.2021 02:58 15,1 C -2,1 C 0,0 C 54 % 82 % 1025,6 hPa 0,0 l/m 0,0 km/h (0 Bft) W-SW 247 -4,7 C -2,1 C 0,0 km/h (0 Bft)
25.10.2021 02:57 15,1 C -2,1 C 0,0 C 54 % 82 % 1025,6 hPa 0,0 l/m 0,0 km/h (0 Bft) W-SW 247 -4,7 C -2,1 C 0,0 km/h (0 Bft)
25.10.2021 02:56 15,1 C -2,1 C 0,0 C 54 % 82 % 1025,6 hPa 0,0 l/m 0,0 km/h (0 Bft) W 270 -4,7 C -2,1 C 0,0 km/h (0 Bft)
25.10.2021 02:55 15,1 C -2,1 C 0,0 C 54 % 82 % 1025,6 hPa 0,0 l/m 0,0 km/h (0 Bft) W 270 -4,7 C -2,1 C 0,0 km/h (0 Bft)
25.10.2021 02:54 15,2 C -2,1 C 0,0 C 54 % 82 % 1025,6 hPa 0,0 l/m 0,0 km/h (0 Bft) W-SW 247 -4,7 C -2,1 C 0,0 km/h (0 Bft)
25.10.2021 02:53 15,2 C -2,1 C 0,0 C 54 % 82 % 1025,6 hPa 0,0 l/m 0,0 km/h (0 Bft) W-SW 247 -4,7 C -2,1 C 0,0 km/h (0 Bft)
25.10.2021 02:52 15,2 C -2,1 C 0,0 C 54 % 82 % 1025,5 hPa 0,0 l/m 0,0 km/h (0 Bft) SW 225 -4,7 C -2,1 C 0,0 km/h (0 Bft)
25.10.2021 02:51 15,2 C -2,1 C 0,0 C 54 % 82 % 1025,5 hPa 0,0 l/m 0,0 km/h (0 Bft) SW 225 -4,7 C -2,1 C 0,0 km/h (0 Bft)
25.10.2021 02:50 15,1 C -2,1 C 0,1 C 54 % 82 % 1025,5 hPa 0,0 l/m 0,0 km/h (0 Bft) W-SW 247 -4,7 C -2,1 C 0,0 km/h (0 Bft)
25.10.2021 02:49 15,1 C -2,1 C 0,1 C 54 % 82 % 1025,5 hPa 0,0 l/m 0,0 km/h (0 Bft) W-SW 247 -4,7 C -2,1 C 0,0 km/h (0 Bft)
25.10.2021 02:48 15,2 C -2,1 C 0,1 C 54 % 82 % 1025,5 hPa 0,0 l/m 0,0 km/h (0 Bft) NW 315 -4,7 C -2,1 C 0,0 km/h (0 Bft)
25.10.2021 02:47 15,2 C -2,1 C 0,1 C 54 % 82 % 1025,5 hPa 0,0 l/m 0,0 km/h (0 Bft) NW 315 -4,7 C -2,1 C 0,0 km/h (0 Bft)
25.10.2021 02:46 15,2 C -2,1 C 0,1 C 54 % 82 % 1025,5 hPa 0,0 l/m 0,0 km/h (0 Bft) N-NW 337 -4,7 C -2,1 C 0,0 km/h (0 Bft)
25.10.2021 02:45 15,2 C -2,1 C 0,1 C 54 % 82 % 1025,5 hPa 0,0 l/m 0,0 km/h (0 Bft) N-NW 337 -4,7 C -2,1 C 0,0 km/h (0 Bft)
25.10.2021 02:44 15,2 C -2,1 C 0,1 C 54 % 82 % 1025,5 hPa 0,0 l/m 0,0 km/h (0 Bft) W-NW 292 -4,7 C -2,1 C 0,0 km/h (0 Bft)
25.10.2021 02:43 15,2 C -2,1 C 0,1 C 54 % 82 % 1025,5 hPa 0,0 l/m 0,0 km/h (0 Bft) W-NW 292 -4,7 C -2,1 C 0,0 km/h (0 Bft)
25.10.2021 02:42 15,2 C -2,1 C 0,1 C 54 % 82 % 1025,5 hPa 0,0 l/m 0,0 km/h (0 Bft) N-NW 337 -4,7 C -2,1 C 0,0 km/h (0 Bft)
25.10.2021 02:41 15,2 C -2,1 C 0,1 C 54 % 82 % 1025,5 hPa 0,0 l/m 0,0 km/h (0 Bft) N-NW 337 -4,7 C -2,1 C 0,0 km/h (0 Bft)
25.10.2021 02:40 15,2 C -1,9 C 0,1 C 54 % 82 % 1025,5 hPa 0,0 l/m 0,0 km/h (0 Bft) N-NW 337 -4,6 C -1,9 C 0,0 km/h (0 Bft)
25.10.2021 02:39 15,2 C -1,9 C 0,1 C 54 % 82 % 1025,5 hPa 0,0 l/m 0,0 km/h (0 Bft) N-NW 337 -4,6 C -1,9 C 0,0 km/h (0 Bft)
25.10.2021 02:38 15,2 C -1,9 C 0,1 C 54 % 82 % 1025,5 hPa 0,0 l/m 0,0 km/h (0 Bft) W-SW 247 -4,6 C -1,9 C 0,0 km/h (0 Bft)
25.10.2021 02:37 15,2 C -1,9 C 0,1 C 54 % 82 % 1025,5 hPa 0,0 l/m 0,0 km/h (0 Bft) W-SW 247 -4,6 C -1,9 C 0,0 km/h (0 Bft)
25.10.2021 02:36 15,2 C -1,9 C 0,1 C 54 % 82 % 1025,5 hPa 0,0 l/m 0,0 km/h (0 Bft) W 270 -4,6 C -1,9 C 0,0 km/h (0 Bft)
25.10.2021 02:35 15,2 C -1,9 C 0,1 C 54 % 82 % 1025,5 hPa 0,0 l/m 0,0 km/h (0 Bft) W 270 -4,6 C -1,9 C 0,0 km/h (0 Bft)
25.10.2021 02:34 15,2 C -1,9 C 0,1 C 54 % 82 % 1025,5 hPa 0,0 l/m 0,0 km/h (0 Bft) NO 45 -4,6 C -1,9 C 0,0 km/h (0 Bft)
25.10.2021 02:33 15,2 C -1,9 C 0,1 C 54 % 82 % 1025,5 hPa 0,0 l/m 0,0 km/h (0 Bft) NO 45 -4,6 C -1,9 C 0,0 km/h (0 Bft)
25.10.2021 02:32 15,2 C -1,8 C 0,1 C 54 % 82 % 1025,8 hPa 0,0 l/m 0,0 km/h (0 Bft) S-SO 157 -4,5 C -1,8 C 0,0 km/h (0 Bft)
25.10.2021 02:31 15,2 C -1,8 C 0,1 C 54 % 82 % 1025,8 hPa 0,0 l/m 0,0 km/h (0 Bft) S-SO 157 -4,5 C -1,8 C 0,0 km/h (0 Bft)
25.10.2021 02:30 15,1 C -1,8 C 0,2 C 54 % 82 % 1025,8 hPa 0,0 l/m 0,0 km/h (0 Bft) W-SW 247 -4,5 C -1,8 C 0,0 km/h (0 Bft)
25.10.2021 02:29 15,1 C -1,8 C 0,2 C 54 % 82 % 1025,8 hPa 0,0 l/m 0,0 km/h (0 Bft) W-SW 247 -4,5 C -1,8 C 0,0 km/h (0 Bft)
25.10.2021 02:28 15,1 C -1,8 C 0,2 C 54 % 82 % 1025,8 hPa 0,0 l/m 0,0 km/h (0 Bft) S 180 -4,5 C -1,8 C 0,0 km/h (0 Bft)
25.10.2021 02:27 15,1 C -1,8 C 0,2 C 54 % 82 % 1025,8 hPa 0,0 l/m 0,0 km/h (0 Bft) S 180 -4,5 C -1,8 C 0,0 km/h (0 Bft)
25.10.2021 02:26 15,1 C -1,8 C 0,2 C 54 % 82 % 1025,8 hPa 0,0 l/m 0,0 km/h (0 Bft) W 270 -4,5 C -1,8 C 0,0 km/h (0 Bft)
25.10.2021 02:25 15,1 C -1,8 C 0,2 C 54 % 82 % 1025,8 hPa 0,0 l/m 0,0 km/h (0 Bft) W 270 -4,5 C -1,8 C 0,0 km/h (0 Bft)
25.10.2021 02:24 15,1 C -1,8 C 0,2 C 54 % 82 % 1025,8 hPa 0,0 l/m 0,0 km/h (0 Bft) W 270 -4,5 C -1,8 C 0,0 km/h (0 Bft)
25.10.2021 02:23 15,1 C -1,8 C 0,2 C 54 % 82 % 1025,8 hPa 0,0 l/m 0,0 km/h (0 Bft) W 270 -4,5 C -1,8 C 0,0 km/h (0 Bft)
25.10.2021 02:22 15,3 C -1,8 C 0,2 C 54 % 82 % 1025,8 hPa 0,0 l/m 0,0 km/h (0 Bft) W 270 -4,5 C -1,8 C 0,0 km/h (0 Bft)
25.10.2021 02:21 15,3 C -1,8 C 0,2 C 54 % 82 % 1025,8 hPa 0,0 l/m 0,0 km/h (0 Bft) W 270 -4,5 C -1,8 C 0,0 km/h (0 Bft)
25.10.2021 02:20 15,1 C -1,8 C 0,2 C 54 % 82 % 1025,8 hPa 0,0 l/m 0,0 km/h (0 Bft) W 270 -4,5 C -1,8 C 0,0 km/h (0 Bft)
25.10.2021 02:19 15,1 C -1,8 C 0,2 C 54 % 82 % 1025,8 hPa 0,0 l/m 0,0 km/h (0 Bft) W 270 -4,5 C -1,8 C 0,0 km/h (0 Bft)
25.10.2021 02:18 15,1 C -1,8 C 0,2 C 54 % 82 % 1025,8 hPa 0,0 l/m 0,0 km/h (0 Bft) N 360 -4,5 C -1,8 C 0,0 km/h (0 Bft)
25.10.2021 02:17 15,1 C -1,8 C 0,2 C 54 % 82 % 1025,8 hPa 0,0 l/m 0,0 km/h (0 Bft) N 360 -4,5 C -1,8 C 0,0 km/h (0 Bft)
25.10.2021 02:16 15,3 C -1,8 C 0,3 C 54 % 82 % 1025,8 hPa 0,0 l/m 0,0 km/h (0 Bft) W 270 -4,5 C -1,8 C 0,0 km/h (0 Bft)
25.10.2021 02:15 15,3 C -1,8 C 0,3 C 54 % 82 % 1025,8 hPa 0,0 l/m 0,0 km/h (0 Bft) W 270 -4,5 C -1,8 C 0,0 km/h (0 Bft)
25.10.2021 02:14 15,3 C -1,8 C 0,3 C 54 % 82 % 1025,8 hPa 0,0 l/m 0,0 km/h (0 Bft) NW 315 -4,5 C -1,8 C 0,0 km/h (0 Bft)
25.10.2021 02:13 15,3 C -1,8 C 0,3 C 54 % 82 % 1025,8 hPa 0,0 l/m 0,0 km/h (0 Bft) NW 315 -4,5 C -1,8 C 0,0 km/h (0 Bft)
25.10.2021 02:12 15,3 C -1,8 C 0,3 C 54 % 82 % 1025,8 hPa 0,0 l/m 0,0 km/h (0 Bft) W 270 -4,5 C -1,8 C 0,0 km/h (0 Bft)
25.10.2021 02:11 15,3 C -1,8 C 0,3 C 54 % 82 % 1025,8 hPa 0,0 l/m 0,0 km/h (0 Bft) W 270 -4,5 C -1,8 C 0,0 km/h (0 Bft)
25.10.2021 02:10 15,2 C -1,7 C 0,3 C 54 % 82 % 1025,8 hPa 0,0 l/m 0,0 km/h (0 Bft) W 270 -4,4 C -1,7 C 0,0 km/h (0 Bft)
25.10.2021 02:09 15,2 C -1,7 C 0,3 C 54 % 82 % 1025,8 hPa 0,0 l/m 0,0 km/h (0 Bft) W 270 -4,4 C -1,7 C 0,0 km/h (0 Bft)
25.10.2021 02:08 15,2 C -1,7 C 0,3 C 54 % 82 % 1025,8 hPa 0,0 l/m 0,0 km/h (0 Bft) W 270 -4,4 C -1,7 C 0,0 km/h (0 Bft)
25.10.2021 02:07 15,2 C -1,7 C 0,3 C 54 % 82 % 1025,8 hPa 0,0 l/m 0,0 km/h (0 Bft) W 270 -4,4 C -1,7 C 0,0 km/h (0 Bft)
25.10.2021 02:06 15,2 C -1,7 C 0,3 C 54 % 82 % 1025,8 hPa 0,0 l/m 0,0 km/h (0 Bft) N 360 -4,4 C -1,7 C 0,0 km/h (0 Bft)
25.10.2021 02:05 15,2 C -1,7 C 0,3 C 54 % 82 % 1025,8 hPa 0,0 l/m 0,0 km/h (0 Bft) N 360 -4,4 C -1,7 C 0,0 km/h (0 Bft)
25.10.2021 02:04 15,2 C -1,7 C 0,3 C 54 % 82 % 1025,8 hPa 0,0 l/m 0,0 km/h (0 Bft) N-NW 337 -4,4 C -1,7 C 0,0 km/h (0 Bft)
25.10.2021 02:03 15,2 C -1,7 C 0,3 C 54 % 82 % 1025,8 hPa 0,0 l/m 0,0 km/h (0 Bft) N-NW 337 -4,4 C -1,7 C 0,0 km/h (0 Bft)
25.10.2021 02:02 15,2 C -1,7 C 0,5 C 54 % 82 % 1025,8 hPa 0,0 l/m 0,0 km/h (0 Bft) NW 315 -4,4 C -1,7 C 0,0 km/h (0 Bft)
25.10.2021 02:01 15,2 C -1,7 C 0,5 C 54 % 82 % 1025,8 hPa 0,0 l/m 0,0 km/h (0 Bft) NW 315 -4,4 C -1,7 C 0,0 km/h (0 Bft)
25.10.2021 02:00 15,2 C -1,7 C 0,5 C 54 % 82 % 1025,8 hPa 0,0 l/m 0,0 km/h (0 Bft) W-NW 292 -4,4 C -1,7 C 0,0 km/h (0 Bft)
25.10.2021 01:59 15,2 C -1,7 C 0,5 C 54 % 82 % 1025,8 hPa 0,0 l/m 0,0 km/h (0 Bft) W-NW 292 -4,4 C -1,7 C 0,0 km/h (0 Bft)
25.10.2021 01:58 15,4 C -1,5 C 0,5 C 54 % 82 % 1025,8 hPa 0,0 l/m 0,0 km/h (0 Bft) W-SW 247 -4,2 C -1,5 C 0,0 km/h (0 Bft)
25.10.2021 01:57 15,4 C -1,5 C 0,5 C 54 % 82 % 1025,8 hPa 0,0 l/m 0,0 km/h (0 Bft) W-SW 247 -4,2 C -1,5 C 0,0 km/h (0 Bft)
25.10.2021 01:56 15,2 C -1,5 C 0,5 C 54 % 82 % 1025,8 hPa 0,0 l/m 0,0 km/h (0 Bft) W-SW 247 -4,2 C -1,5 C 0,0 km/h (0 Bft)
25.10.2021 01:55 15,2 C -1,5 C 0,5 C 54 % 82 % 1025,8 hPa 0,0 l/m 0,0 km/h (0 Bft) W-SW 247 -4,2 C -1,5 C 0,0 km/h (0 Bft)
25.10.2021 01:54 15,4 C -1,5 C 0,6 C 54 % 82 % 1025,8 hPa 0,0 l/m 0,0 km/h (0 Bft) W 270 -4,2 C -1,5 C 0,0 km/h (0 Bft)
25.10.2021 01:53 15,4 C -1,5 C 0,6 C 54 % 82 % 1025,8 hPa 0,0 l/m 0,0 km/h (0 Bft) W 270 -4,2 C -1,5 C 0,0 km/h (0 Bft)
25.10.2021 01:52 15,4 C -1,5 C 0,6 C 54 % 82 % 1025,9 hPa 0,0 l/m 0,0 km/h (0 Bft) W-SW 247 -4,2 C -1,5 C 0,0 km/h (0 Bft)
25.10.2021 01:51 15,4 C -1,5 C 0,6 C 54 % 82 % 1025,9 hPa 0,0 l/m 0,0 km/h (0 Bft) W-SW 247 -4,2 C -1,5 C 0,0 km/h (0 Bft)
25.10.2021 01:50 15,4 C -1,5 C 0,6 C 54 % 82 % 1025,9 hPa 0,0 l/m 0,0 km/h (0 Bft) O-SO 112 -4,2 C -1,5 C 0,0 km/h (0 Bft)
25.10.2021 01:49 15,4 C -1,5 C 0,6 C 54 % 82 % 1025,9 hPa 0,0 l/m 0,0 km/h (0 Bft) O-SO 112 -4,2 C -1,5 C 0,0 km/h (0 Bft)
25.10.2021 01:48 15,4 C -1,5 C 0,6 C 54 % 82 % 1025,9 hPa 0,0 l/m 0,0 km/h (0 Bft) W-NW 292 -4,2 C -1,5 C 0,0 km/h (0 Bft)
25.10.2021 01:47 15,4 C -1,5 C 0,6 C 54 % 82 % 1025,9 hPa 0,0 l/m 0,0 km/h (0 Bft) W-NW 292 -4,2 C -1,5 C 0,0 km/h (0 Bft)
25.10.2021 01:46 15,4 C -1,5 C 0,6 C 54 % 82 % 1025,9 hPa 0,0 l/m 0,0 km/h (0 Bft) W 270 -4,2 C -1,5 C 0,0 km/h (0 Bft)
25.10.2021 01:45 15,4 C -1,5 C 0,6 C 54 % 82 % 1025,9 hPa 0,0 l/m 0,0 km/h (0 Bft) W 270 -4,2 C -1,5 C 0,0 km/h (0 Bft)
25.10.2021 01:44 15,4 C -1,5 C 0,6 C 54 % 82 % 1025,9 hPa 0,0 l/m 0,0 km/h (0 Bft) W 270 -4,2 C -1,5 C 0,0 km/h (0 Bft)
25.10.2021 01:43 15,4 C -1,5 C 0,6 C 54 % 82 % 1025,9 hPa 0,0 l/m 0,0 km/h (0 Bft) W 270 -4,2 C -1,5 C 0,0 km/h (0 Bft)
25.10.2021 01:42 15,4 C -1,5 C 0,6 C 54 % 82 % 1025,9 hPa 0,0 l/m 0,0 km/h (0 Bft) W 270 -4,2 C -1,5 C 0,0 km/h (0 Bft)
25.10.2021 01:41 15,4 C -1,5 C 0,6 C 54 % 82 % 1025,9 hPa 0,0 l/m 0,0 km/h (0 Bft) W 270 -4,2 C -1,5 C 0,0 km/h (0 Bft)
25.10.2021 01:40 15,4 C -1,5 C 0,6 C 54 % 82 % 1025,9 hPa 0,0 l/m 0,0 km/h (0 Bft) W 270 -4,2 C -1,5 C 0,0 km/h (0 Bft)
25.10.2021 01:39 15,4 C -1,5 C 0,6 C 54 % 82 % 1025,9 hPa 0,0 l/m 0,0 km/h (0 Bft) W 270 -4,2 C -1,5 C 0,0 km/h (0 Bft)
25.10.2021 01:38 15,3 C -1,4 C 0,7 C 54 % 82 % 1025,9 hPa 0,0 l/m 0,0 km/h (0 Bft) W 270 -4,1 C -1,4 C 0,0 km/h (0 Bft)
25.10.2021 01:37 15,3 C -1,4 C 0,7 C 54 % 82 % 1025,9 hPa 0,0 l/m 0,0 km/h (0 Bft) W 270 -4,1 C -1,4 C 0,0 km/h (0 Bft)
25.10.2021 01:36 15,5 C -1,4 C 0,7 C 54 % 82 % 1025,9 hPa 0,0 l/m 0,0 km/h (0 Bft) W-SW 247 -4,1 C -1,4 C 0,0 km/h (0 Bft)
25.10.2021 01:35 15,5 C -1,4 C 0,7 C 54 % 82 % 1025,9 hPa 0,0 l/m 0,0 km/h (0 Bft) W-SW 247 -4,1 C -1,4 C 0,0 km/h (0 Bft)
25.10.2021 01:34 15,5 C -1,4 C 0,7 C 54 % 82 % 1025,9 hPa 0,0 l/m 0,0 km/h (0 Bft) W-NW 292 -4,1 C -1,4 C 0,0 km/h (0 Bft)
25.10.2021 01:33 15,5 C -1,4 C 0,7 C 54 % 82 % 1025,9 hPa 0,0 l/m 0,0 km/h (0 Bft) W-NW 292 -4,1 C -1,4 C 0,0 km/h (0 Bft)
25.10.2021 01:32 15,5 C -1,4 C 0,7 C 54 % 82 % 1026,0 hPa 0,0 l/m 0,0 km/h (0 Bft) NW 315 -4,1 C -1,4 C 0,0 km/h (0 Bft)
25.10.2021 01:31 15,5 C -1,4 C 0,7 C 54 % 82 % 1026,0 hPa 0,0 l/m 0,0 km/h (0 Bft) NW 315 -4,1 C -1,4 C 0,0 km/h (0 Bft)
25.10.2021 01:30 15,5 C -1,3 C 0,7 C 54 % 82 % 1026,0 hPa 0,0 l/m 0,0 km/h (0 Bft) W 270 -4,0 C -1,3 C 0,0 km/h (0 Bft)
25.10.2021 01:29 15,5 C -1,3 C 0,7 C 54 % 82 % 1026,0 hPa 0,0 l/m 0,0 km/h (0 Bft) W 270 -4,0 C -1,3 C 0,0 km/h (0 Bft)
25.10.2021 01:28 15,5 C -1,3 C 0,8 C 54 % 82 % 1026,0 hPa 0,0 l/m 0,0 km/h (0 Bft) W-SW 247 -4,0 C -1,3 C 0,0 km/h (0 Bft)
25.10.2021 01:27 15,5 C -1,3 C 0,8 C 54 % 82 % 1026,0 hPa 0,0 l/m 0,0 km/h (0 Bft) W-SW 247 -4,0 C -1,3 C 0,0 km/h (0 Bft)
25.10.2021 01:26 15,5 C -1,3 C 0,8 C 54 % 82 % 1026,0 hPa 0,0 l/m 0,2 km/h (0 Bft) W-SW 247 -4,0 C -1,3 C 0,0 km/h (0 Bft)
25.10.2021 01:25 15,5 C -1,3 C 0,8 C 54 % 82 % 1026,0 hPa 0,0 l/m 0,2 km/h (0 Bft) W-SW 247 -4,0 C -1,3 C 0,0 km/h (0 Bft)
25.10.2021 01:24 15,4 C -1,3 C 0,8 C 54 % 82 % 1026,0 hPa 0,0 l/m 0,2 km/h (0 Bft) W 270 -4,0 C -1,3 C 0,0 km/h (0 Bft)
25.10.2021 01:23 15,4 C -1,3 C 0,8 C 54 % 82 % 1026,0 hPa 0,0 l/m 0,2 km/h (0 Bft) W 270 -4,0 C -1,3 C 0,0 km/h (0 Bft)
25.10.2021 01:22 15,4 C -1,3 C 0,8 C 54 % 82 % 1026,0 hPa 0,0 l/m 0,2 km/h (0 Bft) W 270 -4,0 C -1,3 C 0,0 km/h (0 Bft)
25.10.2021 01:21 15,4 C -1,3 C 0,8 C 54 % 82 % 1026,0 hPa 0,0 l/m 0,2 km/h (0 Bft) W 270 -4,0 C -1,3 C 0,0 km/h (0 Bft)
25.10.2021 01:20 15,4 C -1,3 C 0,8 C 54 % 81 % 1026,0 hPa 0,0 l/m 0,2 km/h (0 Bft) W 270 -4,1 C -1,3 C 0,0 km/h (0 Bft)
25.10.2021 01:19 15,4 C -1,3 C 0,8 C 54 % 81 % 1026,0 hPa 0,0 l/m 0,2 km/h (0 Bft) W 270 -4,1 C -1,3 C 0,0 km/h (0 Bft)
25.10.2021 01:18 15,6 C -1,3 C 0,8 C 54 % 81 % 1026,0 hPa 0,0 l/m 0,2 km/h (0 Bft) NW 315 -4,1 C -1,3 C 0,0 km/h (0 Bft)
25.10.2021 01:17 15,6 C -1,3 C 0,8 C 54 % 81 % 1026,0 hPa 0,0 l/m 0,2 km/h (0 Bft) NW 315 -4,1 C -1,3 C 0,0 km/h (0 Bft)
25.10.2021 01:16 15,6 C -1,4 C 0,8 C 54 % 81 % 1026,0 hPa 0,0 l/m 0,2 km/h (0 Bft) W-NW 292 -4,2 C -1,4 C 0,0 km/h (0 Bft)
25.10.2021 01:15 15,6 C -1,4 C 0,8 C 54 % 81 % 1026,0 hPa 0,0 l/m 0,2 km/h (0 Bft) W-NW 292 -4,2 C -1,4 C 0,0 km/h (0 Bft)
25.10.2021 01:14 15,6 C -1,4 C 0,8 C 54 % 81 % 1026,0 hPa 0,0 l/m 0,0 km/h (0 Bft) N 360 -4,2 C -1,4 C 0,0 km/h (0 Bft)
25.10.2021 01:13 15,6 C -1,4 C 0,8 C 54 % 81 % 1026,0 hPa 0,0 l/m 0,0 km/h (0 Bft) N 360 -4,2 C -1,4 C 0,0 km/h (0 Bft)
25.10.2021 01:12 15,6 C -1,4 C 0,8 C 54 % 81 % 1026,1 hPa 0,0 l/m 0,0 km/h (0 Bft) N-NW 337 -4,2 C -1,4 C 0,0 km/h (0 Bft)
25.10.2021 01:11 15,6 C -1,4 C 0,8 C 54 % 81 % 1026,1 hPa 0,0 l/m 0,0 km/h (0 Bft) N-NW 337 -4,2 C -1,4 C 0,0 km/h (0 Bft)
25.10.2021 01:10 15,6 C -1,4 C 0,8 C 54 % 81 % 1026,1 hPa 0,0 l/m 0,0 km/h (0 Bft) NW 315 -4,2 C -1,4 C 0,0 km/h (0 Bft)
25.10.2021 01:09 15,6 C -1,4 C 0,8 C 54 % 81 % 1026,1 hPa 0,0 l/m 0,0 km/h (0 Bft) NW 315 -4,2 C -1,4 C 0,0 km/h (0 Bft)
25.10.2021 01:08 15,6 C -1,4 C 0,8 C 54 % 81 % 1026,1 hPa 0,0 l/m 0,0 km/h (0 Bft) W 270 -4,2 C -1,4 C 0,0 km/h (0 Bft)
25.10.2021 01:07 15,6 C -1,4 C 0,8 C 54 % 81 % 1026,1 hPa 0,0 l/m 0,0 km/h (0 Bft) W 270 -4,2 C -1,4 C 0,0 km/h (0 Bft)
25.10.2021 01:06 15,6 C -1,3 C 0,8 C 54 % 81 % 1026,1 hPa 0,0 l/m 0,0 km/h (0 Bft) W 270 -4,1 C -1,3 C 0,0 km/h (0 Bft)
25.10.2021 01:05 15,6 C -1,3 C 0,8 C 54 % 81 % 1026,1 hPa 0,0 l/m 0,0 km/h (0 Bft) W 270 -4,1 C -1,3 C 0,0 km/h (0 Bft)
25.10.2021 01:04 15,6 C -1,3 C 0,8 C 54 % 81 % 1026,1 hPa 0,0 l/m 0,0 km/h (0 Bft) W 270 -4,1 C -1,3 C 0,0 km/h (0 Bft)
25.10.2021 01:03 15,6 C -1,3 C 0,8 C 54 % 81 % 1026,1 hPa 0,0 l/m 0,0 km/h (0 Bft) W 270 -4,1 C -1,3 C 0,0 km/h (0 Bft)
25.10.2021 01:02 15,6 C -1,3 C 1,0 C 54 % 81 % 1026,1 hPa 0,0 l/m 0,0 km/h (0 Bft) W 270 -4,1 C -1,3 C 0,0 km/h (0 Bft)
25.10.2021 01:01 15,6 C -1,3 C 1,0 C 54 % 81 % 1026,1 hPa 0,0 l/m 0,0 km/h (0 Bft) W 270 -4,1 C -1,3 C 0,0 km/h (0 Bft)
25.10.2021 01:00 15,6 C -1,3 C 1,0 C 54 % 81 % 1026,1 hPa 0,0 l/m 0,0 km/h (0 Bft) W 270 -4,1 C -1,3 C 0,0 km/h (0 Bft)
25.10.2021 00:59 15,6 C -1,3 C 1,0 C 54 % 81 % 1026,1 hPa 0,0 l/m 0,0 km/h (0 Bft) W 270 -4,1 C -1,3 C 0,0 km/h (0 Bft)
25.10.2021 00:58 15,6 C -1,1 C 1,1 C 54 % 81 % 1026,1 hPa 0,0 l/m 0,0 km/h (0 Bft) NW 315 -3,9 C -1,1 C 0,0 km/h (0 Bft)
25.10.2021 00:57 15,6 C -1,1 C 1,1 C 54 % 81 % 1026,1 hPa 0,0 l/m 0,0 km/h (0 Bft) NW 315 -3,9 C -1,1 C 0,0 km/h (0 Bft)
25.10.2021 00:56 15,6 C -1,1 C 1,1 C 54 % 81 % 1026,1 hPa 0,0 l/m 0,0 km/h (0 Bft) O-SO 112 -3,9 C -1,1 C 0,0 km/h (0 Bft)
25.10.2021 00:55 15,6 C -1,1 C 1,1 C 54 % 81 % 1026,1 hPa 0,0 l/m 0,0 km/h (0 Bft) O-SO 112 -3,9 C -1,1 C 0,0 km/h (0 Bft)
25.10.2021 00:54 15,6 C -1,1 C 1,1 C 54 % 81 % 1026,1 hPa 0,0 l/m 0,0 km/h (0 Bft) SO 135 -3,9 C -1,1 C 0,0 km/h (0 Bft)
25.10.2021 00:53 15,6 C -1,1 C 1,1 C 54 % 81 % 1026,1 hPa 0,0 l/m 0,0 km/h (0 Bft) SO 135 -3,9 C -1,1 C 0,0 km/h (0 Bft)
25.10.2021 00:52 15,7 C -1,1 C 1,1 C 54 % 81 % 1026,4 hPa 0,0 l/m 0,0 km/h (0 Bft) S-SO 157 -3,9 C -1,1 C 0,0 km/h (0 Bft)
25.10.2021 00:51 15,7 C -1,1 C 1,1 C 54 % 81 % 1026,4 hPa 0,0 l/m 0,0 km/h (0 Bft) S-SO 157 -3,9 C -1,1 C 0,0 km/h (0 Bft)
25.10.2021 00:50 15,6 C -1,0 C 1,1 C 54 % 81 % 1026,4 hPa 0,0 l/m 0,0 km/h (0 Bft) S-SO 157 -3,8 C -1,0 C 0,0 km/h (0 Bft)
25.10.2021 00:49 15,6 C -1,0 C 1,1 C 54 % 81 % 1026,4 hPa 0,0 l/m 0,0 km/h (0 Bft) S-SO 157 -3,8 C -1,0 C 0,0 km/h (0 Bft)
25.10.2021 00:48 15,7 C -1,0 C 1,2 C 54 % 81 % 1026,4 hPa 0,0 l/m 0,0 km/h (0 Bft) S-SW 202 -3,8 C -1,0 C 0,0 km/h (0 Bft)
25.10.2021 00:47 15,7 C -1,0 C 1,2 C 54 % 81 % 1026,4 hPa 0,0 l/m 0,0 km/h (0 Bft) S-SW 202 -3,8 C -1,0 C 0,0 km/h (0 Bft)
25.10.2021 00:46 15,7 C -1,0 C 1,1 C 54 % 81 % 1026,4 hPa 0,0 l/m 0,0 km/h (0 Bft) W-SW 247 -3,8 C -1,0 C 0,0 km/h (0 Bft)
25.10.2021 00:45 15,7 C -1,0 C 1,1 C 54 % 81 % 1026,4 hPa 0,0 l/m 0,0 km/h (0 Bft) W-SW 247 -3,8 C -1,0 C 0,0 km/h (0 Bft)
25.10.2021 00:44 15,6 C -1,0 C 1,1 C 54 % 81 % 1026,4 hPa 0,0 l/m 0,0 km/h (0 Bft) NW 315 -3,8 C -1,0 C 0,0 km/h (0 Bft)
25.10.2021 00:43 15,6 C -1,0 C 1,1 C 54 % 81 % 1026,4 hPa 0,0 l/m 0,0 km/h (0 Bft) NW 315 -3,8 C -1,0 C 0,0 km/h (0 Bft)
25.10.2021 00:42 15,6 C -0,9 C 1,2 C 54 % 81 % 1026,4 hPa 0,0 l/m 0,0 km/h (0 Bft) W-SW 247 -3,7 C -0,9 C 0,0 km/h (0 Bft)
25.10.2021 00:41 15,6 C -0,9 C 1,2 C 54 % 81 % 1026,4 hPa 0,0 l/m 0,0 km/h (0 Bft) W-SW 247 -3,7 C -0,9 C 0,0 km/h (0 Bft)
25.10.2021 00:40 15,6 C -0,9 C 1,2 C 54 % 81 % 1026,4 hPa 0,0 l/m 0,0 km/h (0 Bft) W-SW 247 -3,7 C -0,9 C 0,0 km/h (0 Bft)
25.10.2021 00:39 15,6 C -0,9 C 1,2 C 54 % 81 % 1026,4 hPa 0,0 l/m 0,0 km/h (0 Bft) W-SW 247 -3,7 C -0,9 C 0,0 km/h (0 Bft)
25.10.2021 00:38 15,8 C -0,9 C 1,2 C 54 % 81 % 1026,4 hPa 0,0 l/m 0,0 km/h (0 Bft) W 270 -3,7 C -0,9 C 0,0 km/h (0 Bft)
25.10.2021 00:37 15,8 C -0,9 C 1,2 C 54 % 81 % 1026,4 hPa 0,0 l/m 0,0 km/h (0 Bft) W 270 -3,7 C -0,9 C 0,0 km/h (0 Bft)
25.10.2021 00:36 15,8 C -0,9 C 1,3 C 54 % 81 % 1026,4 hPa 0,0 l/m 0,2 km/h (0 Bft) W-SW 247 -3,7 C -0,9 C 0,0 km/h (0 Bft)
25.10.2021 00:35 15,8 C -0,9 C 1,3 C 54 % 81 % 1026,4 hPa 0,0 l/m 0,2 km/h (0 Bft) W-SW 247 -3,7 C -0,9 C 0,0 km/h (0 Bft)
25.10.2021 00:34 15,8 C -0,9 C 1,3 C 54 % 81 % 1026,4 hPa 0,0 l/m 0,6 km/h (0 Bft) W 270 -3,7 C -0,9 C 0,0 km/h (0 Bft)
25.10.2021 00:33 15,8 C -0,9 C 1,3 C 54 % 81 % 1026,4 hPa 0,0 l/m 0,6 km/h (0 Bft) W 270 -3,7 C -0,9 C 0,0 km/h (0 Bft)
25.10.2021 00:32 15,8 C -0,9 C 1,2 C 54 % 81 % 1026,3 hPa 0,0 l/m 0,6 km/h (0 Bft) W 270 -3,7 C -0,9 C 0,0 km/h (0 Bft)
25.10.2021 00:31 15,8 C -0,9 C 1,2 C 54 % 81 % 1026,3 hPa 0,0 l/m 0,6 km/h (0 Bft) W 270 -3,7 C -0,9 C 0,0 km/h (0 Bft)
25.10.2021 00:30 15,8 C -0,9 C 1,3 C 54 % 81 % 1026,3 hPa 0,0 l/m 0,6 km/h (0 Bft) W 270 -3,7 C -0,9 C 0,0 km/h (0 Bft)
25.10.2021 00:29 15,8 C -0,9 C 1,3 C 54 % 81 % 1026,3 hPa 0,0 l/m 0,6 km/h (0 Bft) W 270 -3,7 C -0,9 C 0,0 km/h (0 Bft)
25.10.2021 00:28 15,8 C -0,9 C 1,3 C 54 % 81 % 1026,3 hPa 0,0 l/m 0,6 km/h (0 Bft) W 270 -3,7 C -0,9 C 0,0 km/h (0 Bft)
25.10.2021 00:27 15,8 C -0,9 C 1,3 C 54 % 81 % 1026,3 hPa 0,0 l/m 0,6 km/h (0 Bft) W 270 -3,7 C -0,9 C 0,0 km/h (0 Bft)
25.10.2021 00:26 15,8 C -0,9 C 1,3 C 54 % 81 % 1026,3 hPa 0,0 l/m 0,6 km/h (0 Bft) W 270 -3,7 C -0,9 C 4,8 km/h (1 Bft)
25.10.2021 00:25 15,8 C -0,9 C 1,3 C 54 % 81 % 1026,3 hPa 0,0 l/m 0,6 km/h (0 Bft) W 270 -3,7 C -0,9 C 2,7 km/h (1 Bft)
25.10.2021 00:24 15,8 C -0,7 C 1,3 C 54 % 81 % 1026,3 hPa 0,0 l/m 0,2 km/h (0 Bft) W 270 -3,5 C -0,7 C 3,1 km/h (1 Bft)
25.10.2021 00:23 15,8 C -0,7 C 1,3 C 54 % 81 % 1026,3 hPa 0,0 l/m 0,2 km/h (0 Bft) W 270 -3,5 C -0,7 C 3,1 km/h (1 Bft)
25.10.2021 00:22 15,8 C -0,7 C 1,3 C 54 % 81 % 1026,3 hPa 0,0 l/m 0,0 km/h (0 Bft) W 270 -3,5 C -0,7 C 0,0 km/h (0 Bft)
25.10.2021 00:21 15,8 C -0,7 C 1,3 C 54 % 81 % 1026,3 hPa 0,0 l/m 0,0 km/h (0 Bft) W 270 -3,5 C -0,7 C 0,0 km/h (0 Bft)
25.10.2021 00:20 15,8 C -0,7 C 1,5 C 54 % 81 % 1026,3 hPa 0,0 l/m 0,2 km/h (0 Bft) W-NW 292 -3,5 C -0,7 C 0,0 km/h (0 Bft)
25.10.2021 00:19 15,8 C -0,7 C 1,5 C 54 % 81 % 1026,3 hPa 0,0 l/m 0,2 km/h (0 Bft) W-NW 292 -3,5 C -0,7 C 0,0 km/h (0 Bft)
25.10.2021 00:18 15,8 C -0,7 C 1,5 C 54 % 81 % 1026,3 hPa 0,0 l/m 0,5 km/h (0 Bft) W 270 -3,5 C -0,7 C 0,0 km/h (0 Bft)
25.10.2021 00:17 15,8 C -0,7 C 1,5 C 54 % 81 % 1026,3 hPa 0,0 l/m 0,5 km/h (0 Bft) W 270 -3,5 C -0,7 C 0,0 km/h (0 Bft)
25.10.2021 00:16 15,9 C -0,7 C 1,5 C 54 % 81 % 1026,3 hPa 0,0 l/m 0,6 km/h (0 Bft) W 270 -3,5 C -0,7 C 0,0 km/h (0 Bft)
25.10.2021 00:15 15,9 C -0,7 C 1,5 C 54 % 81 % 1026,3 hPa 0,0 l/m 0,6 km/h (0 Bft) W 270 -3,5 C -0,7 C 0,0 km/h (0 Bft)
25.10.2021 00:14 15,9 C -0,7 C 1,5 C 54 % 81 % 1026,3 hPa 0,0 l/m 0,5 km/h (0 Bft) N-NW 337 -3,5 C -0,7 C 0,0 km/h (0 Bft)
25.10.2021 00:13 15,9 C -0,7 C 1,5 C 54 % 81 % 1026,3 hPa 0,0 l/m 0,5 km/h (0 Bft) N-NW 337 -3,5 C -0,7 C 0,0 km/h (0 Bft)
25.10.2021 00:12 15,9 C -0,7 C 1,6 C 54 % 81 % 1026,4 hPa 0,0 l/m 0,5 km/h (0 Bft) NW 315 -3,5 C -0,7 C 0,0 km/h (0 Bft)
25.10.2021 00:11 15,9 C -0,7 C 1,6 C 54 % 81 % 1026,4 hPa 0,0 l/m 0,5 km/h (0 Bft) NW 315 -3,5 C -0,7 C 0,0 km/h (0 Bft)
25.10.2021 00:10 15,9 C -0,7 C 1,6 C 54 % 81 % 1026,4 hPa 0,0 l/m 0,5 km/h (0 Bft) NW 315 -3,5 C -0,7 C 0,0 km/h (0 Bft)
25.10.2021 00:09 15,9 C -0,7 C 1,6 C 54 % 81 % 1026,4 hPa 0,0 l/m 0,5 km/h (0 Bft) NW 315 -3,5 C -0,7 C 0,0 km/h (0 Bft)
25.10.2021 00:08 15,9 C -0,7 C 1,5 C 54 % 81 % 1026,4 hPa 0,0 l/m 0,2 km/h (0 Bft) W 270 -3,5 C -0,7 C 3,6 km/h (1 Bft)
25.10.2021 00:07 15,9 C -0,7 C 1,5 C 54 % 81 % 1026,4 hPa 0,0 l/m 0,2 km/h (0 Bft) W 270 -3,5 C -0,7 C 3,6 km/h (1 Bft)
25.10.2021 00:06 15,8 C -0,7 C 1,5 C 54 % 80 % 1026,4 hPa 0,0 l/m 0,0 km/h (0 Bft) W 270 -3,7 C -0,7 C 0,0 km/h (0 Bft)
25.10.2021 00:05 15,8 C -0,7 C 1,5 C 54 % 80 % 1026,4 hPa 0,0 l/m 0,0 km/h (0 Bft) W 270 -3,7 C -0,7 C 0,0 km/h (0 Bft)
25.10.2021 00:04 15,8 C -0,7 C 1,5 C 54 % 80 % 1026,4 hPa 0,0 l/m 0,0 km/h (0 Bft) W 270 -3,7 C -0,7 C 0,0 km/h (0 Bft)
25.10.2021 00:03 15,8 C -0,7 C 1,5 C 54 % 80 % 1026,4 hPa 0,0 l/m 0,0 km/h (0 Bft) W 270 -3,7 C -0,7 C 0,0 km/h (0 Bft)
25.10.2021 00:02 16,0 C -0,7 C 1,6 C 54 % 80 % 1026,4 hPa 0,0 l/m 0,0 km/h (0 Bft) W 270 -3,7 C -0,7 C 0,0 km/h (0 Bft)
25.10.2021 00:01 16,0 C -0,7 C 1,6 C 54 % 80 % 1026,4 hPa 0,0 l/m 0,0 km/h (0 Bft) W 270 -3,7 C -0,7 C 0,0 km/h (0 Bft)
25.10.2021 00:00 16,0 C -0,7 C 1,6 C 54 % 80 % 1026,4 hPa 0,0 l/m 0,0 km/h (0 Bft) W 270 -3,7 C -0,7 C 0,0 km/h (0 Bft)
_ Min-Zeit 05:49 07:11 07:13 07:55 00:00 04:53 - 00:00 - - 07:11 07:11 00:00
Minimum _ 14,3 C -3,6 C -1,8 C 53 % 80 % 1024,6 hPa - 0,0 km/h (0 Bft) - - -6,1 C -3,6 C 0,0 km/h (0 Bft)
_ Max-Zeit 00:00 00:00 00:00 06:19 08:11 00:00 00:00 00:15 - - 00:07 00:00 00:26
Maximum _ 16,0 C -0,7 C 1,6 C 55 % 84 % 1026,4 hPa 0,0 l/m 0,6 km/h
W (0 Bft)
- - -3,5 C -0,7 C 4,8 km/h
W (1 Bft)
Durchschnitt _ 15,0 C -2,4 C -0,5 C 54 % 83 % 1025,4 hPa #0,0 l/m 0,0 km/h (0 Bft) N - -5,0 C -2,4 C 0,0 km/h (0 Bft)